GFSNIL_prec_precacc_015.txt.gz
Total_Precipitation_Accumulation
0.00 0.00 0.00 0.00 0.00 0.00 0.00 0.00 0.00 0.00 0.00 0.00 0.00 0.01 0.06 0.08 0.11 0.13 0.11 0.05 0.02 0.01
0.00 0.00 0.00 0.00 0.00 0.00 0.00 0.00 0.00 0.00 0.01 0.03 0.09 0.14 0.15 0.11 0.06 0.02 0.01 0.00 0.00 0.00
0.00 0.00 0.00 0.00 0.00 0.00 0.00 0.00 0.00 0.04 0.12 0.18 0.16 0.08 0.03 0.01 0.00 0.00 0.00 0.00 0.00 0.00
0.00 0.00 0.00 0.00 0.00 0.00 0.00 0.01 0.05 0.09 0.08 0.03 0.00 0.00 0.00 0.00 0.00 0.00 0.00 0.00 0.00 0.00
0.00 0.00 0.00 0.00 0.00 0.00 0.00 0.00 0.00 0.00 0.00 0.00 0.00 0.00 0.00 0.00 0.00 0.00 0.00 0.00 0.00 0.00
0.00 0.00 0.00 0.00 0.00 0.00 0.00 0.00 0.00 0.00 0.00 0.00 0.00 0.00 0.00 0.00 0.00 0.00 0.00 0.00 0.00 0.00
0.00 0.00 0.00 0.00 0.00 0.00 0.00 0.00 0.00 0.00 0.00 0.00 0.00 0.00 0.00 0.00 0.00 0.00 0.00 0.00 0.00 0.00
0.00 0.00 0.00 0.00 0.00 0.00 0.00 0.00 0.00 0.00 0.00 0.00 0.00 0.00 0.00 0.00 0.00 0.00 0.00 0.00 0.00 0.00
0.05 0.10 0.13 0.11 0.06 0.01 0.00 0.00 0.00 0.00 0.00 0.00 0.00 0.00 0.00 0.00 0.00 0.00 0.00 0.01 0.00 0.00
0.10 0.12 0.06 0.01 0.00 0.00 0.00 0.00 0.00 0.00 0.00 0.00 0.00 0.00 0.00 0.00 0.00 0.01 0.01 0.01 0.01 0.01
0.00 0.00 0.00 0.00 0.00 0.00 0.00 0.00 0.00 0.00 0.00 0.00 0.00 0.00 0.00 0.00 0.01 0.01 0.01 0.01 0.01 0.01
0.00 0.00 0.00 0.00 0.00 0.00 0.00 0.00 0.00 0.00 0.00 0.00 0.00 0.00 0.00 0.00 0.04 0.05 0.02 0.01 0.01 0.02
0.00 0.00 0.00 0.00 0.00 0.00 0.00 0.00 0.00 0.00 0.00 0.00 0.00 0.00 0.00 0.01 0.12 0.17 0.07 0.04 0.02 0.02
0.00 0.00 0.00 0.00 0.00 0.00 0.00 0.00 0.00 0.01 0.00 0.00 0.00 0.00 0.02 0.03 0.13 0.16 0.15 0.06 0.03 0.03

GFSNIL_prec_precacc_018.txt.gz
Total_Precipitation_Accumulation
0.00 0.00 0.00 0.00 0.00 0.00 0.00 0.00 0.00 0.00 0.00 0.00 0.00 0.01 0.07 0.11 0.17 0.28 0.34 0.31 0.23 0.15
0.00 0.00 0.00 0.00 0.00 0.00 0.00 0.00 0.00 0.00 0.01 0.03 0.09 0.15 0.19 0.20 0.19 0.17 0.11 0.07 0.04 0.02
0.00 0.00 0.00 0.00 0.00 0.00 0.00 0.00 0.00 0.04 0.12 0.18 0.16 0.11 0.09 0.06 0.03 0.02 0.01 0.00 0.00 0.00
0.00 0.00 0.00 0.00 0.00 0.00 0.00 0.01 0.05 0.09 0.08 0.03 0.01 0.00 0.00 0.00 0.00 0.00 0.00 0.00 0.00 0.00
0.00 0.00 0.00 0.00 0.00 0.00 0.00 0.00 0.00 0.00 0.00 0.00 0.00 0.00 0.00 0.00 0.00 0.00 0.00 0.00 0.00 0.00
0.00 0.00 0.00 0.00 0.00 0.00 0.00 0.00 0.00 0.00 0.00 0.00 0.00 0.00 0.00 0.00 0.00 0.00 0.00 0.00 0.00 0.00
0.00 0.00 0.00 0.00 0.00 0.00 0.00 0.01 0.01 0.00 0.00 0.00 0.00 0.00 0.00 0.00 0.00 0.00 0.00 0.00 0.00 0.00
0.00 0.00 0.01 0.01 0.02 0.03 0.02 0.01 0.00 0.00 0.00 0.00 0.00 0.00 0.00 0.00 0.00 0.00 0.00 0.00 0.00 0.00
0.06 0.12 0.16 0.14 0.09 0.03 0.01 0.01 0.00 0.00 0.00 0.00 0.00 0.00 0.00 0.00 0.00 0.00 0.00 0.01 0.00 0.00
0.10 0.12 0.06 0.01 0.00 0.00 0.00 0.00 0.00 0.00 0.00 0.00 0.00 0.00 0.00 0.00 0.00 0.01 0.01 0.01 0.01 0.01
0.00 0.00 0.00 0.00 0.00 0.00 0.00 0.00 0.00 0.00 0.00 0.00 0.00 0.00 0.00 0.00 0.01 0.01 0.01 0.01 0.01 0.01
0.00 0.00 0.00 0.00 0.00 0.00 0.00 0.00 0.00 0.00 0.00 0.00 0.00 0.00 0.00 0.00 0.04 0.05 0.02 0.01 0.01 0.02
0.00 0.00 0.00 0.00 0.00 0.00 0.00 0.00 0.00 0.00 0.00 0.00 0.00 0.00 0.00 0.01 0.12 0.17 0.07 0.04 0.02 0.02
0.00 0.00 0.00 0.00 0.00 0.00 0.00 0.00 0.00 0.01 0.00 0.00 0.00 0.00 0.02 0.03 0.13 0.17 0.16 0.06 0.03 0.03

GFSNIL_prec_precacc_021.txt.gz
Total_Precipitation_Accumulation
0.00 0.00 0.00 0.00 0.00 0.00 0.00 0.00 0.00 0.00 0.00 0.00 0.00 0.01 0.07 0.11 0.17 0.31 0.41 0.43 0.42 0.37
0.00 0.00 0.00 0.00 0.00 0.00 0.00 0.00 0.00 0.00 0.01 0.03 0.09 0.15 0.19 0.20 0.24 0.25 0.21 0.17 0.14 0.11
0.00 0.00 0.00 0.00 0.00 0.00 0.00 0.00 0.00 0.04 0.12 0.18 0.16 0.11 0.09 0.07 0.04 0.02 0.02 0.01 0.01 0.01
0.00 0.00 0.00 0.00 0.00 0.00 0.00 0.01 0.05 0.09 0.08 0.03 0.02 0.01 0.00 0.00 0.00 0.00 0.00 0.00 0.00 0.00
0.00 0.00 0.00 0.00 0.00 0.00 0.00 0.00 0.00 0.00 0.03 0.05 0.03 0.00 0.00 0.00 0.00 0.00 0.00 0.00 0.00 0.00
0.00 0.00 0.00 0.00 0.00 0.00 0.00 0.00 0.02 0.05 0.03 0.01 0.00 0.00 0.00 0.00 0.00 0.00 0.00 0.00 0.00 0.00
0.00 0.00 0.00 0.00 0.00 0.00 0.00 0.02 0.02 0.01 0.00 0.00 0.00 0.00 0.00 0.00 0.00 0.00 0.00 0.00 0.00 0.00
0.00 0.00 0.01 0.01 0.02 0.03 0.03 0.01 0.01 0.00 0.00 0.00 0.00 0.00 0.00 0.00 0.00 0.00 0.00 0.00 0.00 0.00
0.06 0.14 0.18 0.15 0.09 0.03 0.01 0.01 0.00 0.00 0.00 0.00 0.00 0.00 0.00 0.00 0.00 0.00 0.00 0.01 0.00 0.00
0.11 0.14 0.08 0.01 0.00 0.00 0.00 0.00 0.00 0.00 0.00 0.00 0.00 0.00 0.00 0.00 0.00 0.01 0.01 0.01 0.01 0.01
0.00 0.00 0.00 0.00 0.00 0.00 0.00 0.00 0.00 0.00 0.00 0.00 0.00 0.00 0.00 0.00 0.01 0.01 0.01 0.01 0.01 0.01
0.00 0.00 0.00 0.00 0.00 0.00 0.00 0.00 0.00 0.00 0.00 0.00 0.00 0.00 0.00 0.00 0.04 0.05 0.02 0.01 0.01 0.02
0.00 0.00 0.00 0.00 0.00 0.00 0.00 0.00 0.00 0.00 0.00 0.00 0.00 0.00 0.00 0.01 0.12 0.17 0.07 0.04 0.02 0.02
0.00 0.00 0.00 0.00 0.00 0.00 0.00 0.00 0.00 0.01 0.00 0.00 0.00 0.00 0.02 0.03 0.13 0.18 0.17 0.07 0.04 0.04

GFSNIL_prec_precacc_024.txt.gz
Total_Precipitation_Accumulation
0.00 0.00 0.00 0.00 0.00 0.00 0.00 0.00 0.00 0.00 0.00 0.00 0.00 0.01 0.07 0.11 0.18 0.31 0.42 0.46 0.46 0.43
0.00 0.00 0.00 0.00 0.00 0.00 0.00 0.00 0.00 0.00 0.01 0.04 0.10 0.15 0.19 0.20 0.25 0.28 0.23 0.19 0.16 0.15
0.00 0.00 0.00 0.00 0.00 0.00 0.00 0.00 0.01 0.04 0.12 0.18 0.17 0.12 0.10 0.08 0.06 0.03 0.03 0.02 0.02 0.02
0.00 0.00 0.00 0.00 0.00 0.00 0.00 0.01 0.05 0.09 0.08 0.06 0.06 0.05 0.04 0.02 0.01 0.01 0.00 0.00 0.00 0.00
0.00 0.00 0.00 0.00 0.00 0.00 0.00 0.00 0.00 0.02 0.06 0.08 0.04 0.02 0.01 0.00 0.00 0.00 0.00 0.00 0.00 0.00
0.00 0.00 0.00 0.00 0.00 0.00 0.00 0.01 0.03 0.07 0.04 0.01 0.00 0.00 0.00 0.00 0.00 0.00 0.00 0.00 0.00 0.00
0.00 0.00 0.00 0.00 0.00 0.01 0.01 0.03 0.03 0.02 0.00 0.00 0.00 0.00 0.00 0.00 0.00 0.00 0.00 0.00 0.00 0.00
0.00 0.01 0.02 0.04 0.03 0.05 0.04 0.03 0.02 0.01 0.00 0.00 0.00 0.00 0.00 0.00 0.00 0.00 0.00 0.00 0.00 0.00
0.07 0.15 0.20 0.17 0.10 0.03 0.02 0.01 0.00 0.00 0.00 0.00 0.00 0.00 0.00 0.00 0.00 0.00 0.00 0.01 0.00 0.00
0.11 0.14 0.08 0.01 0.00 0.00 0.00 0.00 0.00 0.00 0.00 0.00 0.00 0.00 0.00 0.00 0.00 0.01 0.01 0.01 0.01 0.01
0.00 0.00 0.00 0.00 0.00 0.00 0.00 0.00 0.00 0.00 0.00 0.00 0.00 0.00 0.00 0.00 0.01 0.01 0.01 0.01 0.01 0.01
0.00 0.00 0.00 0.00 0.00 0.00 0.00 0.00 0.00 0.00 0.00 0.00 0.00 0.00 0.00 0.00 0.04 0.05 0.02 0.01 0.01 0.02
0.00 0.00 0.00 0.00 0.00 0.00 0.00 0.00 0.00 0.00 0.00 0.00 0.00 0.00 0.00 0.02 0.13 0.18 0.08 0.04 0.03 0.02
0.00 0.00 0.00 0.00 0.00 0.00 0.00 0.00 0.00 0.01 0.01 0.00 0.00 0.01 0.02 0.04 0.14 0.19 0.18 0.08 0.04 0.05

GFSNIL_prec_precacc_027.txt.gz
Total_Precipitation_Accumulation
0.00 0.00 0.00 0.00 0.00 0.00 0.00 0.00 0.00 0.00 0.00 0.00 0.01 0.02 0.07 0.12 0.18 0.31 0.42 0.46 0.46 0.43
0.00 0.00 0.00 0.00 0.00 0.00 0.00 0.00 0.00 0.00 0.01 0.04 0.10 0.15 0.19 0.21 0.27 0.30 0.25 0.21 0.18 0.16
0.00 0.00 0.00 0.00 0.00 0.00 0.00 0.00 0.01 0.04 0.12 0.18 0.17 0.12 0.11 0.10 0.09 0.09 0.08 0.06 0.05 0.04
0.00 0.00 0.00 0.00 0.00 0.00 0.00 0.01 0.05 0.09 0.08 0.06 0.07 0.06 0.04 0.03 0.02 0.01 0.01 0.01 0.01 0.00
0.00 0.00 0.00 0.00 0.00 0.00 0.00 0.00 0.01 0.02 0.07 0.09 0.05 0.02 0.02 0.02 0.00 0.00 0.00 0.00 0.00 0.00
0.00 0.00 0.00 0.00 0.00 0.00 0.01 0.03 0.06 0.10 0.06 0.02 0.00 0.00 0.00 0.00 0.00 0.00 0.00 0.00 0.00 0.00
0.00 0.00 0.01 0.01 0.01 0.03 0.04 0.05 0.06 0.04 0.01 0.00 0.00 0.00 0.00 0.00 0.00 0.00 0.00 0.00 0.00 0.00
0.01 0.01 0.03 0.05 0.04 0.06 0.06 0.04 0.02 0.01 0.00 0.00 0.00 0.00 0.00 0.00 0.00 0.00 0.00 0.00 0.00 0.00
0.07 0.15 0.21 0.18 0.10 0.04 0.02 0.01 0.00 0.00 0.00 0.00 0.00 0.00 0.00 0.00 0.00 0.00 0.00 0.01 0.00 0.00
0.11 0.14 0.08 0.01 0.00 0.00 0.00 0.00 0.00 0.00 0.00 0.00 0.00 0.00 0.00 0.00 0.00 0.01 0.01 0.01 0.01 0.01
0.00 0.00 0.00 0.00 0.00 0.00 0.00 0.00 0.00 0.00 0.00 0.00 0.00 0.00 0.00 0.00 0.01 0.01 0.01 0.01 0.01 0.01
0.00 0.00 0.00 0.00 0.00 0.00 0.00 0.00 0.00 0.00 0.00 0.00 0.00 0.00 0.00 0.00 0.04 0.06 0.03 0.01 0.02 0.03
0.00 0.00 0.00 0.00 0.00 0.00 0.00 0.00 0.00 0.00 0.00 0.00 0.00 0.00 0.00 0.02 0.13 0.19 0.09 0.05 0.03 0.02
0.00 0.00 0.00 0.00 0.00 0.00 0.00 0.00 0.00 0.01 0.01 0.01 0.01 0.01 0.02 0.04 0.14 0.21 0.20 0.09 0.05 0.06

GFSNIL_prec_precacc_030.txt.gz
Total_Precipitation_Accumulation
0.00 0.00 0.00 0.00 0.00 0.00 0.00 0.00 0.00 0.00 0.00 0.00 0.01 0.02 0.07 0.12 0.19 0.31 0.43 0.46 0.47 0.44
0.00 0.00 0.00 0.00 0.00 0.00 0.00 0.00 0.00 0.00 0.01 0.04 0.10 0.15 0.19 0.21 0.28 0.32 0.27 0.24 0.21 0.19
0.00 0.00 0.00 0.00 0.00 0.00 0.00 0.00 0.01 0.04 0.12 0.18 0.17 0.12 0.11 0.10 0.09 0.10 0.10 0.08 0.07 0.06
0.00 0.00 0.00 0.00 0.00 0.00 0.00 0.01 0.05 0.09 0.08 0.06 0.07 0.06 0.05 0.04 0.03 0.03 0.02 0.01 0.01 0.01
0.00 0.00 0.00 0.00 0.00 0.00 0.00 0.01 0.01 0.03 0.08 0.10 0.06 0.03 0.03 0.02 0.00 0.00 0.00 0.00 0.00 0.00
0.00 0.00 0.00 0.00 0.00 0.00 0.01 0.04 0.08 0.11 0.07 0.03 0.01 0.00 0.00 0.00 0.00 0.00 0.00 0.00 0.00 0.00
0.00 0.00 0.01 0.01 0.01 0.03 0.05 0.07 0.07 0.05 0.02 0.01 0.00 0.00 0.00 0.00 0.00 0.00 0.00 0.00 0.00 0.00
0.01 0.01 0.03 0.05 0.05 0.07 0.06 0.04 0.02 0.01 0.00 0.00 0.00 0.00 0.00 0.00 0.00 0.00 0.00 0.00 0.00 0.00
0.07 0.15 0.21 0.18 0.10 0.04 0.02 0.01 0.00 0.00 0.00 0.00 0.00 0.00 0.00 0.00 0.00 0.00 0.00 0.01 0.00 0.00
0.11 0.14 0.08 0.01 0.00 0.00 0.00 0.00 0.00 0.00 0.00 0.00 0.00 0.00 0.00 0.00 0.00 0.01 0.01 0.01 0.01 0.01
0.00 0.00 0.00 0.00 0.00 0.00 0.00 0.00 0.00 0.00 0.00 0.00 0.00 0.00 0.00 0.00 0.01 0.01 0.01 0.01 0.01 0.02
0.00 0.00 0.00 0.00 0.00 0.00 0.00 0.00 0.00 0.00 0.00 0.00 0.00 0.00 0.00 0.00 0.04 0.06 0.03 0.01 0.02 0.04
0.00 0.00 0.00 0.00 0.00 0.00 0.00 0.00 0.00 0.00 0.00 0.00 0.00 0.01 0.00 0.02 0.13 0.19 0.09 0.05 0.04 0.03
0.00 0.00 0.00 0.00 0.00 0.00 0.00 0.00 0.00 0.01 0.01 0.01 0.02 0.02 0.03 0.04 0.15 0.22 0.21 0.09 0.06 0.06

GFSNIL_prec_precacc_033.txt.gz
Total_Precipitation_Accumulation
0.00 0.00 0.00 0.00 0.00 0.00 0.00 0.00 0.00 0.00 0.00 0.00 0.01 0.02 0.07 0.12 0.19 0.31 0.43 0.46 0.47 0.45
0.00 0.00 0.00 0.00 0.00 0.00 0.00 0.00 0.00 0.00 0.01 0.04 0.10 0.15 0.19 0.21 0.28 0.32 0.27 0.24 0.22 0.20
0.00 0.00 0.00 0.00 0.00 0.00 0.00 0.00 0.01 0.04 0.12 0.18 0.17 0.12 0.11 0.10 0.09 0.10 0.10 0.08 0.07 0.06
0.00 0.00 0.00 0.00 0.00 0.00 0.00 0.01 0.05 0.09 0.08 0.06 0.08 0.07 0.05 0.04 0.04 0.03 0.02 0.02 0.02 0.01
0.00 0.00 0.00 0.00 0.00 0.00 0.00 0.01 0.02 0.04 0.09 0.11 0.07 0.04 0.03 0.02 0.00 0.00 0.00 0.00 0.00 0.00
0.00 0.00 0.00 0.00 0.00 0.00 0.01 0.04 0.08 0.12 0.08 0.03 0.01 0.00 0.00 0.00 0.00 0.00 0.00 0.00 0.00 0.00
0.00 0.00 0.01 0.01 0.01 0.03 0.05 0.07 0.07 0.05 0.02 0.01 0.00 0.00 0.00 0.00 0.00 0.00 0.00 0.00 0.00 0.00
0.01 0.01 0.03 0.05 0.05 0.07 0.06 0.04 0.02 0.01 0.00 0.00 0.00 0.00 0.00 0.00 0.00 0.00 0.00 0.00 0.00 0.00
0.07 0.15 0.21 0.18 0.10 0.04 0.02 0.01 0.00 0.00 0.00 0.00 0.00 0.00 0.00 0.00 0.00 0.00 0.00 0.01 0.00 0.00
0.11 0.14 0.08 0.01 0.00 0.00 0.00 0.00 0.00 0.00 0.00 0.00 0.00 0.00 0.00 0.00 0.00 0.01 0.01 0.01 0.01 0.01
0.01 0.00 0.01 0.01 0.00 0.00 0.00 0.00 0.00 0.00 0.00 0.00 0.00 0.00 0.00 0.00 0.01 0.01 0.01 0.01 0.01 0.02
0.01 0.03 0.03 0.01 0.00 0.00 0.00 0.00 0.00 0.00 0.00 0.00 0.00 0.00 0.00 0.00 0.04 0.06 0.03 0.01 0.02 0.04
0.03 0.07 0.08 0.03 0.00 0.00 0.00 0.00 0.00 0.00 0.00 0.00 0.00 0.01 0.01 0.03 0.13 0.19 0.09 0.05 0.04 0.03
0.03 0.04 0.02 0.00 0.00 0.00 0.00 0.00 0.00 0.01 0.01 0.01 0.02 0.02 0.03 0.04 0.15 0.22 0.22 0.09 0.06 0.06

GFSNIL_prec_precacc_036.txt.gz
Total_Precipitation_Accumulation
0.00 0.00 0.00 0.00 0.00 0.00 0.00 0.00 0.00 0.00 0.00 0.00 0.01 0.02 0.07 0.12 0.19 0.31 0.43 0.46 0.47 0.45
0.00 0.00 0.00 0.00 0.00 0.00 0.00 0.00 0.00 0.00 0.01 0.04 0.10 0.15 0.19 0.21 0.28 0.32 0.27 0.24 0.22 0.20
0.00 0.00 0.00 0.00 0.00 0.00 0.00 0.00 0.01 0.04 0.12 0.18 0.17 0.12 0.11 0.10 0.09 0.10 0.10 0.09 0.08 0.07
0.00 0.00 0.00 0.00 0.00 0.00 0.00 0.01 0.05 0.09 0.08 0.06 0.08 0.07 0.06 0.05 0.04 0.04 0.03 0.02 0.02 0.01
0.00 0.00 0.00 0.00 0.00 0.00 0.00 0.01 0.02 0.04 0.09 0.11 0.07 0.04 0.03 0.02 0.00 0.00 0.00 0.00 0.00 0.00
0.00 0.00 0.00 0.00 0.00 0.00 0.01 0.04 0.08 0.12 0.08 0.03 0.01 0.00 0.00 0.00 0.00 0.00 0.00 0.00 0.00 0.00
0.00 0.00 0.01 0.01 0.01 0.03 0.05 0.07 0.07 0.05 0.02 0.01 0.00 0.00 0.00 0.00 0.00 0.00 0.00 0.00 0.00 0.00
0.01 0.01 0.03 0.05 0.05 0.07 0.06 0.04 0.02 0.01 0.00 0.00 0.00 0.00 0.00 0.00 0.00 0.00 0.00 0.00 0.00 0.00
0.07 0.15 0.21 0.19 0.11 0.04 0.03 0.02 0.00 0.00 0.00 0.00 0.00 0.00 0.00 0.00 0.00 0.00 0.00 0.01 0.00 0.00
0.11 0.14 0.08 0.02 0.02 0.07 0.08 0.01 0.00 0.00 0.00 0.00 0.00 0.00 0.00 0.00 0.00 0.01 0.01 0.01 0.01 0.01
0.01 0.00 0.01 0.05 0.08 0.07 0.04 0.01 0.00 0.00 0.00 0.00 0.00 0.00 0.00 0.00 0.01 0.01 0.01 0.01 0.01 0.02
0.01 0.03 0.05 0.06 0.09 0.05 0.01 0.00 0.00 0.00 0.00 0.00 0.00 0.00 0.00 0.00 0.04 0.06 0.03 0.01 0.02 0.04
0.03 0.07 0.10 0.07 0.01 0.00 0.00 0.00 0.00 0.00 0.00 0.00 0.00 0.01 0.01 0.03 0.14 0.19 0.09 0.05 0.04 0.03
0.03 0.04 0.03 0.01 0.00 0.00 0.00 0.00 0.00 0.01 0.01 0.01 0.02 0.02 0.03 0.04 0.15 0.22 0.22 0.10 0.06 0.06

GFSNIL_prec_precacc_039.txt.gz
Total_Precipitation_Accumulation
0.00 0.00 0.00 0.00 0.00 0.00 0.00 0.00 0.00 0.00 0.00 0.00 0.01 0.02 0.07 0.12 0.19 0.31 0.43 0.46 0.47 0.45
0.00 0.00 0.00 0.00 0.00 0.00 0.00 0.00 0.00 0.00 0.01 0.04 0.10 0.15 0.19 0.21 0.28 0.32 0.27 0.24 0.23 0.21
0.00 0.00 0.00 0.00 0.00 0.00 0.00 0.00 0.01 0.04 0.12 0.18 0.17 0.12 0.11 0.10 0.09 0.10 0.10 0.09 0.08 0.07
0.00 0.00 0.00 0.00 0.00 0.00 0.00 0.01 0.05 0.09 0.08 0.06 0.08 0.07 0.06 0.05 0.04 0.04 0.03 0.02 0.02 0.01
0.00 0.00 0.00 0.00 0.00 0.00 0.00 0.01 0.02 0.04 0.09 0.11 0.07 0.04 0.03 0.02 0.00 0.00 0.00 0.00 0.00 0.00
0.00 0.00 0.00 0.00 0.00 0.00 0.01 0.04 0.08 0.12 0.08 0.03 0.01 0.00 0.00 0.00 0.00 0.00 0.00 0.00 0.00 0.00
0.00 0.00 0.01 0.01 0.01 0.03 0.05 0.07 0.07 0.05 0.02 0.01 0.00 0.00 0.00 0.00 0.00 0.00 0.00 0.00 0.00 0.00
0.01 0.01 0.03 0.05 0.05 0.08 0.07 0.04 0.03 0.03 0.00 0.00 0.00 0.00 0.00 0.00 0.00 0.00 0.00 0.00 0.00 0.00
0.07 0.15 0.21 0.19 0.11 0.04 0.03 0.06 0.06 0.01 0.00 0.00 0.00 0.00 0.00 0.00 0.00 0.00 0.00 0.01 0.00 0.00
0.11 0.14 0.08 0.02 0.02 0.07 0.09 0.06 0.03 0.00 0.00 0.00 0.00 0.00 0.00 0.00 0.00 0.01 0.01 0.01 0.01 0.01
0.01 0.00 0.01 0.05 0.08 0.08 0.06 0.03 0.00 0.00 0.00 0.00 0.00 0.00 0.00 0.00 0.01 0.01 0.01 0.01 0.01 0.02
0.01 0.03 0.05 0.06 0.09 0.06 0.01 0.00 0.00 0.00 0.00 0.00 0.00 0.00 0.00 0.00 0.04 0.06 0.03 0.01 0.02 0.04
0.03 0.07 0.10 0.07 0.01 0.00 0.00 0.00 0.00 0.00 0.00 0.00 0.00 0.01 0.01 0.03 0.14 0.19 0.09 0.05 0.04 0.03
0.03 0.04 0.03 0.01 0.00 0.00 0.00 0.00 0.00 0.01 0.01 0.01 0.02 0.02 0.03 0.04 0.15 0.22 0.22 0.10 0.06 0.06

GFSNIL_prec_precacc_042.txt.gz
Total_Precipitation_Accumulation
0.00 0.00 0.00 0.00 0.00 0.00 0.00 0.00 0.00 0.00 0.00 0.00 0.01 0.02 0.07 0.12 0.19 0.31 0.43 0.46 0.47 0.45
0.00 0.00 0.00 0.00 0.00 0.00 0.00 0.00 0.00 0.00 0.01 0.04 0.10 0.15 0.19 0.21 0.28 0.32 0.27 0.24 0.23 0.21
0.00 0.00 0.00 0.00 0.00 0.00 0.00 0.00 0.01 0.04 0.12 0.18 0.17 0.12 0.11 0.10 0.09 0.10 0.10 0.09 0.08 0.07
0.00 0.00 0.00 0.00 0.00 0.00 0.00 0.01 0.05 0.09 0.08 0.06 0.08 0.07 0.06 0.05 0.04 0.04 0.03 0.02 0.02 0.01
0.00 0.00 0.00 0.00 0.00 0.00 0.00 0.01 0.02 0.04 0.09 0.11 0.07 0.04 0.03 0.02 0.00 0.00 0.00 0.00 0.00 0.00
0.00 0.00 0.00 0.00 0.00 0.00 0.01 0.04 0.08 0.12 0.08 0.03 0.01 0.00 0.00 0.00 0.00 0.00 0.00 0.00 0.00 0.00
0.00 0.00 0.01 0.01 0.01 0.03 0.05 0.07 0.07 0.05 0.02 0.01 0.00 0.00 0.00 0.00 0.00 0.00 0.00 0.00 0.00 0.00
0.01 0.01 0.03 0.05 0.05 0.08 0.07 0.04 0.03 0.03 0.02 0.01 0.00 0.00 0.00 0.00 0.00 0.00 0.00 0.00 0.00 0.00
0.07 0.15 0.21 0.19 0.11 0.04 0.03 0.06 0.06 0.04 0.04 0.01 0.00 0.00 0.00 0.00 0.00 0.00 0.00 0.01 0.00 0.00
0.11 0.14 0.08 0.02 0.02 0.07 0.09 0.06 0.03 0.01 0.00 0.00 0.00 0.00 0.00 0.00 0.00 0.01 0.01 0.01 0.01 0.01
0.01 0.00 0.01 0.05 0.08 0.08 0.06 0.03 0.00 0.00 0.00 0.00 0.00 0.00 0.00 0.00 0.01 0.01 0.01 0.01 0.01 0.02
0.01 0.03 0.05 0.06 0.09 0.06 0.01 0.00 0.00 0.00 0.00 0.00 0.00 0.00 0.00 0.00 0.04 0.06 0.03 0.01 0.02 0.04
0.03 0.07 0.10 0.07 0.01 0.00 0.00 0.00 0.00 0.00 0.00 0.00 0.00 0.01 0.01 0.03 0.14 0.19 0.09 0.05 0.04 0.03
0.03 0.04 0.03 0.01 0.00 0.00 0.00 0.01 0.01 0.01 0.01 0.01 0.02 0.02 0.03 0.04 0.15 0.22 0.22 0.10 0.06 0.06

GFSNIL_prec_precacc_045.txt.gz
Total_Precipitation_Accumulation
0.00 0.00 0.00 0.00 0.00 0.00 0.00 0.00 0.00 0.00 0.00 0.00 0.01 0.02 0.07 0.12 0.19 0.31 0.43 0.46 0.47 0.45
0.00 0.00 0.00 0.00 0.00 0.00 0.00 0.00 0.00 0.00 0.01 0.04 0.10 0.15 0.19 0.22 0.28 0.32 0.28 0.25 0.23 0.21
0.00 0.00 0.00 0.00 0.00 0.00 0.00 0.00 0.01 0.04 0.12 0.18 0.17 0.12 0.12 0.11 0.10 0.11 0.10 0.09 0.08 0.07
0.00 0.00 0.00 0.00 0.00 0.00 0.00 0.01 0.05 0.09 0.08 0.06 0.08 0.08 0.06 0.05 0.04 0.04 0.03 0.02 0.02 0.01
0.00 0.00 0.00 0.00 0.00 0.00 0.00 0.01 0.02 0.04 0.09 0.11 0.07 0.04 0.03 0.02 0.00 0.00 0.00 0.00 0.00 0.00
0.00 0.00 0.00 0.00 0.00 0.00 0.01 0.04 0.08 0.12 0.08 0.04 0.01 0.00 0.00 0.00 0.00 0.00 0.00 0.00 0.00 0.00
0.00 0.00 0.01 0.01 0.01 0.03 0.05 0.07 0.07 0.05 0.02 0.01 0.01 0.01 0.01 0.00 0.00 0.00 0.00 0.00 0.00 0.00
0.01 0.01 0.03 0.05 0.05 0.08 0.07 0.04 0.03 0.03 0.02 0.03 0.03 0.01 0.00 0.00 0.00 0.00 0.00 0.00 0.00 0.00
0.07 0.15 0.21 0.19 0.11 0.04 0.03 0.06 0.06 0.04 0.04 0.01 0.00 0.00 0.00 0.00 0.00 0.00 0.00 0.01 0.00 0.00
0.11 0.14 0.08 0.02 0.02 0.07 0.09 0.06 0.03 0.01 0.00 0.00 0.00 0.00 0.00 0.00 0.00 0.01 0.01 0.01 0.01 0.01
0.01 0.00 0.01 0.05 0.08 0.08 0.06 0.03 0.00 0.00 0.00 0.00 0.00 0.00 0.00 0.00 0.01 0.01 0.01 0.01 0.01 0.02
0.01 0.03 0.05 0.06 0.09 0.06 0.01 0.00 0.00 0.00 0.00 0.00 0.00 0.00 0.00 0.00 0.04 0.06 0.03 0.01 0.02 0.04
0.03 0.07 0.10 0.07 0.01 0.00 0.00 0.00 0.00 0.00 0.00 0.00 0.00 0.01 0.01 0.03 0.14 0.19 0.09 0.05 0.04 0.03
0.03 0.04 0.03 0.01 0.00 0.00 0.00 0.03 0.02 0.02 0.01 0.01 0.02 0.02 0.03 0.04 0.15 0.22 0.22 0.10 0.06 0.06

GFSNIL_prec_precacc_048.txt.gz
Total_Precipitation_Accumulation
0.00 0.00 0.00 0.00 0.00 0.00 0.00 0.00 0.00 0.00 0.00 0.00 0.01 0.02 0.08 0.13 0.20 0.33 0.45 0.49 0.49 0.47
0.00 0.00 0.00 0.00 0.00 0.00 0.00 0.00 0.00 0.00 0.01 0.04 0.10 0.16 0.20 0.24 0.31 0.35 0.31 0.28 0.26 0.22
0.00 0.00 0.00 0.00 0.00 0.00 0.00 0.00 0.01 0.04 0.12 0.18 0.17 0.13 0.14 0.13 0.12 0.13 0.13 0.11 0.08 0.07
0.00 0.00 0.00 0.00 0.00 0.00 0.00 0.01 0.05 0.09 0.08 0.07 0.09 0.09 0.10 0.08 0.05 0.04 0.03 0.02 0.02 0.01
0.00 0.00 0.00 0.00 0.00 0.00 0.00 0.01 0.02 0.04 0.09 0.11 0.09 0.07 0.05 0.03 0.01 0.00 0.00 0.00 0.00 0.00
0.00 0.00 0.00 0.00 0.00 0.00 0.01 0.04 0.08 0.12 0.08 0.04 0.02 0.01 0.00 0.00 0.00 0.00 0.00 0.00 0.00 0.00
0.00 0.00 0.01 0.01 0.01 0.03 0.05 0.07 0.07 0.05 0.03 0.01 0.01 0.02 0.01 0.00 0.00 0.00 0.00 0.00 0.00 0.00
0.01 0.01 0.03 0.05 0.05 0.08 0.07 0.04 0.03 0.03 0.02 0.03 0.03 0.01 0.00 0.00 0.00 0.00 0.00 0.00 0.00 0.00
0.07 0.15 0.21 0.19 0.11 0.04 0.03 0.06 0.06 0.04 0.04 0.01 0.00 0.00 0.00 0.00 0.00 0.00 0.00 0.01 0.00 0.00
0.11 0.14 0.08 0.02 0.02 0.07 0.09 0.06 0.03 0.01 0.00 0.00 0.00 0.00 0.00 0.00 0.00 0.01 0.01 0.01 0.01 0.01
0.01 0.00 0.01 0.05 0.08 0.08 0.06 0.03 0.01 0.00 0.00 0.00 0.00 0.00 0.00 0.00 0.01 0.01 0.01 0.01 0.01 0.02
0.01 0.03 0.05 0.06 0.09 0.06 0.01 0.00 0.00 0.00 0.00 0.00 0.00 0.00 0.00 0.00 0.04 0.06 0.03 0.01 0.02 0.04
0.03 0.07 0.10 0.07 0.01 0.00 0.00 0.00 0.00 0.00 0.00 0.00 0.00 0.01 0.01 0.03 0.14 0.20 0.09 0.05 0.04 0.03
0.03 0.04 0.03 0.01 0.00 0.00 0.00 0.03 0.03 0.02 0.01 0.01 0.02 0.02 0.03 0.04 0.15 0.23 0.22 0.10 0.06 0.06

GFSNIL_prec_precacc_051.txt.gz
Total_Precipitation_Accumulation
0.00 0.00 0.00 0.00 0.00 0.00 0.00 0.00 0.00 0.00 0.00 0.00 0.01 0.02 0.08 0.14 0.21 0.35 0.48 0.52 0.52 0.49
0.00 0.00 0.00 0.00 0.00 0.00 0.00 0.00 0.00 0.00 0.01 0.04 0.10 0.16 0.20 0.25 0.32 0.37 0.33 0.31 0.29 0.24
0.00 0.00 0.00 0.00 0.00 0.00 0.00 0.00 0.01 0.04 0.12 0.18 0.17 0.13 0.14 0.15 0.14 0.15 0.15 0.13 0.09 0.07
0.00 0.00 0.00 0.00 0.00 0.00 0.00 0.01 0.05 0.09 0.08 0.07 0.09 0.09 0.10 0.09 0.07 0.05 0.04 0.02 0.02 0.01
0.00 0.00 0.00 0.00 0.00 0.00 0.00 0.01 0.02 0.04 0.09 0.11 0.09 0.07 0.05 0.03 0.01 0.00 0.00 0.00 0.00 0.00
0.00 0.00 0.00 0.00 0.00 0.00 0.01 0.04 0.08 0.12 0.08 0.04 0.02 0.01 0.00 0.00 0.00 0.00 0.00 0.00 0.00 0.00
0.00 0.00 0.01 0.01 0.01 0.03 0.05 0.07 0.07 0.05 0.03 0.01 0.01 0.02 0.01 0.00 0.00 0.00 0.00 0.00 0.00 0.00
0.01 0.01 0.03 0.05 0.05 0.08 0.07 0.04 0.03 0.03 0.02 0.03 0.03 0.01 0.00 0.00 0.00 0.00 0.00 0.00 0.00 0.00
0.07 0.15 0.21 0.19 0.11 0.04 0.03 0.06 0.06 0.04 0.04 0.01 0.00 0.00 0.00 0.00 0.00 0.00 0.00 0.01 0.00 0.00
0.11 0.14 0.08 0.02 0.02 0.07 0.09 0.06 0.03 0.01 0.00 0.01 0.02 0.00 0.00 0.00 0.00 0.01 0.01 0.01 0.01 0.01
0.01 0.00 0.01 0.05 0.08 0.08 0.06 0.03 0.01 0.00 0.01 0.02 0.02 0.00 0.00 0.00 0.01 0.01 0.01 0.01 0.01 0.02
0.01 0.03 0.05 0.06 0.09 0.06 0.01 0.00 0.00 0.00 0.01 0.01 0.01 0.00 0.00 0.00 0.04 0.06 0.03 0.01 0.02 0.04
0.03 0.07 0.10 0.07 0.01 0.00 0.00 0.00 0.00 0.00 0.01 0.01 0.01 0.01 0.01 0.03 0.14 0.20 0.10 0.05 0.04 0.03
0.03 0.04 0.03 0.01 0.00 0.00 0.00 0.03 0.03 0.03 0.01 0.02 0.02 0.02 0.03 0.04 0.15 0.23 0.22 0.10 0.06 0.06

GFSNIL_prec_precacc_054.txt.gz
Total_Precipitation_Accumulation
0.00 0.00 0.00 0.00 0.00 0.00 0.00 0.00 0.00 0.00 0.00 0.00 0.01 0.02 0.08 0.14 0.22 0.36 0.50 0.54 0.54 0.51
0.00 0.00 0.00 0.00 0.00 0.00 0.00 0.00 0.00 0.00 0.01 0.04 0.10 0.16 0.20 0.25 0.33 0.39 0.35 0.33 0.31 0.26
0.00 0.00 0.00 0.00 0.00 0.00 0.00 0.00 0.01 0.04 0.12 0.18 0.17 0.13 0.14 0.15 0.15 0.16 0.16 0.14 0.11 0.09
0.00 0.00 0.00 0.00 0.00 0.00 0.00 0.01 0.05 0.09 0.08 0.07 0.09 0.09 0.10 0.09 0.07 0.06 0.04 0.02 0.02 0.02
0.00 0.00 0.00 0.00 0.00 0.00 0.00 0.01 0.02 0.04 0.09 0.11 0.09 0.07 0.05 0.03 0.01 0.00 0.00 0.01 0.00 0.00
0.00 0.00 0.00 0.00 0.00 0.00 0.01 0.04 0.08 0.12 0.08 0.04 0.02 0.01 0.00 0.00 0.00 0.00 0.00 0.00 0.00 0.00
0.00 0.00 0.01 0.01 0.01 0.03 0.05 0.07 0.07 0.05 0.03 0.01 0.01 0.02 0.01 0.00 0.00 0.00 0.00 0.01 0.01 0.00
0.01 0.01 0.03 0.05 0.05 0.08 0.07 0.04 0.03 0.03 0.02 0.03 0.04 0.02 0.00 0.00 0.00 0.01 0.01 0.00 0.00 0.00
0.07 0.15 0.21 0.19 0.11 0.04 0.03 0.06 0.06 0.04 0.04 0.01 0.00 0.00 0.00 0.00 0.00 0.00 0.00 0.01 0.00 0.00
0.11 0.14 0.08 0.02 0.02 0.07 0.09 0.06 0.03 0.01 0.00 0.01 0.03 0.00 0.00 0.00 0.00 0.01 0.01 0.01 0.01 0.01
0.01 0.00 0.01 0.05 0.08 0.08 0.06 0.03 0.01 0.00 0.01 0.02 0.03 0.00 0.00 0.00 0.01 0.01 0.01 0.01 0.01 0.02
0.01 0.03 0.05 0.06 0.09 0.06 0.01 0.00 0.00 0.00 0.01 0.02 0.03 0.00 0.00 0.00 0.04 0.06 0.03 0.01 0.02 0.04
0.03 0.07 0.10 0.07 0.01 0.00 0.00 0.00 0.00 0.00 0.01 0.01 0.01 0.01 0.01 0.03 0.14 0.20 0.10 0.05 0.04 0.03
0.03 0.04 0.03 0.01 0.00 0.00 0.00 0.03 0.03 0.03 0.01 0.02 0.02 0.02 0.03 0.04 0.15 0.23 0.22 0.10 0.06 0.06

GFSNIL_prec_precacc_057.txt.gz
Total_Precipitation_Accumulation
0.00 0.00 0.00 0.00 0.00 0.00 0.00 0.00 0.00 0.00 0.00 0.00 0.01 0.02 0.08 0.14 0.22 0.36 0.50 0.54 0.54 0.51
0.00 0.00 0.00 0.00 0.00 0.00 0.00 0.00 0.00 0.00 0.01 0.04 0.10 0.16 0.20 0.25 0.33 0.39 0.35 0.33 0.31 0.26
0.00 0.00 0.00 0.00 0.00 0.00 0.00 0.00 0.01 0.04 0.12 0.18 0.17 0.13 0.14 0.15 0.15 0.16 0.16 0.14 0.11 0.09
0.00 0.00 0.00 0.00 0.00 0.00 0.00 0.01 0.05 0.09 0.08 0.07 0.09 0.09 0.10 0.09 0.07 0.06 0.04 0.02 0.02 0.02
0.00 0.00 0.00 0.00 0.00 0.00 0.00 0.01 0.02 0.04 0.09 0.11 0.09 0.07 0.05 0.03 0.01 0.00 0.00 0.01 0.00 0.00
0.00 0.00 0.00 0.00 0.00 0.00 0.01 0.04 0.08 0.12 0.08 0.04 0.02 0.01 0.00 0.00 0.00 0.00 0.00 0.00 0.00 0.00
0.00 0.00 0.01 0.01 0.01 0.03 0.05 0.07 0.07 0.05 0.03 0.01 0.01 0.02 0.01 0.00 0.00 0.00 0.00 0.01 0.01 0.00
0.01 0.01 0.03 0.05 0.05 0.08 0.07 0.04 0.03 0.03 0.02 0.03 0.04 0.02 0.00 0.00 0.00 0.01 0.01 0.00 0.00 0.00
0.07 0.15 0.21 0.19 0.11 0.04 0.03 0.06 0.06 0.04 0.04 0.01 0.00 0.00 0.00 0.00 0.00 0.00 0.01 0.01 0.00 0.00
0.11 0.14 0.08 0.02 0.02 0.07 0.09 0.06 0.03 0.01 0.00 0.01 0.03 0.00 0.00 0.00 0.00 0.01 0.01 0.01 0.01 0.01
0.01 0.00 0.01 0.05 0.08 0.08 0.06 0.03 0.01 0.00 0.01 0.02 0.03 0.00 0.00 0.00 0.01 0.01 0.01 0.01 0.01 0.02
0.01 0.03 0.05 0.06 0.09 0.06 0.01 0.00 0.00 0.00 0.01 0.02 0.03 0.00 0.00 0.00 0.04 0.06 0.03 0.01 0.02 0.04
0.03 0.07 0.10 0.07 0.01 0.00 0.00 0.00 0.00 0.00 0.01 0.01 0.01 0.01 0.01 0.03 0.14 0.20 0.10 0.05 0.04 0.03
0.03 0.04 0.03 0.01 0.00 0.00 0.00 0.03 0.03 0.03 0.01 0.02 0.02 0.02 0.03 0.04 0.15 0.23 0.22 0.10 0.06 0.06

GFSNIL_prec_precacc_060.txt.gz
Total_Precipitation_Accumulation
0.00 0.00 0.00 0.00 0.00 0.00 0.00 0.00 0.01 0.00 0.00 0.00 0.01 0.02 0.08 0.14 0.22 0.36 0.50 0.54 0.54 0.51
0.00 0.00 0.00 0.00 0.00 0.00 0.01 0.00 0.00 0.00 0.01 0.04 0.10 0.16 0.20 0.25 0.33 0.39 0.35 0.33 0.31 0.26
0.00 0.00 0.00 0.00 0.00 0.00 0.00 0.00 0.01 0.04 0.12 0.18 0.17 0.13 0.14 0.15 0.15 0.16 0.16 0.14 0.11 0.09
0.00 0.00 0.00 0.00 0.00 0.00 0.00 0.01 0.05 0.09 0.08 0.07 0.09 0.09 0.10 0.09 0.07 0.06 0.04 0.02 0.02 0.02
0.00 0.01 0.01 0.00 0.00 0.00 0.00 0.01 0.02 0.04 0.09 0.11 0.09 0.07 0.05 0.03 0.01 0.00 0.00 0.01 0.00 0.00
0.00 0.00 0.00 0.00 0.00 0.00 0.01 0.04 0.08 0.12 0.08 0.04 0.02 0.01 0.00 0.00 0.00 0.00 0.00 0.00 0.00 0.00
0.00 0.00 0.01 0.01 0.01 0.03 0.05 0.07 0.07 0.05 0.03 0.01 0.01 0.02 0.01 0.00 0.00 0.00 0.00 0.01 0.01 0.00
0.01 0.01 0.03 0.05 0.05 0.08 0.07 0.04 0.03 0.03 0.02 0.03 0.04 0.02 0.00 0.00 0.00 0.01 0.01 0.00 0.00 0.00
0.07 0.15 0.21 0.19 0.11 0.04 0.03 0.06 0.06 0.04 0.04 0.01 0.00 0.00 0.00 0.00 0.00 0.00 0.01 0.01 0.00 0.00
0.11 0.14 0.08 0.02 0.02 0.07 0.09 0.06 0.03 0.01 0.00 0.01 0.03 0.00 0.00 0.00 0.00 0.01 0.01 0.01 0.01 0.01
0.01 0.00 0.01 0.05 0.08 0.08 0.06 0.03 0.01 0.00 0.01 0.02 0.03 0.00 0.00 0.00 0.01 0.01 0.01 0.01 0.01 0.02
0.01 0.03 0.05 0.06 0.09 0.06 0.01 0.00 0.00 0.00 0.01 0.02 0.03 0.00 0.00 0.00 0.04 0.06 0.03 0.01 0.02 0.04
0.03 0.07 0.10 0.07 0.01 0.00 0.00 0.00 0.00 0.00 0.01 0.01 0.01 0.01 0.01 0.03 0.14 0.20 0.10 0.05 0.04 0.03
0.03 0.04 0.03 0.01 0.00 0.00 0.00 0.03 0.03 0.03 0.01 0.02 0.02 0.02 0.03 0.04 0.15 0.23 0.22 0.10 0.06 0.06

GFSNIL_prec_precacc_063.txt.gz
Total_Precipitation_Accumulation
0.00 0.00 0.00 0.00 0.00 0.00 0.00 0.01 0.02 0.01 0.00 0.00 0.01 0.02 0.08 0.14 0.22 0.36 0.50 0.54 0.54 0.51
0.00 0.00 0.00 0.00 0.01 0.03 0.02 0.02 0.00 0.00 0.01 0.04 0.10 0.16 0.20 0.25 0.33 0.39 0.35 0.33 0.31 0.26
0.00 0.00 0.00 0.01 0.02 0.02 0.02 0.01 0.01 0.04 0.12 0.18 0.17 0.13 0.14 0.15 0.15 0.16 0.16 0.14 0.11 0.09
0.00 0.00 0.01 0.02 0.03 0.03 0.01 0.01 0.05 0.09 0.08 0.07 0.09 0.09 0.10 0.09 0.07 0.06 0.04 0.02 0.02 0.02
0.00 0.02 0.06 0.07 0.03 0.00 0.00 0.01 0.02 0.04 0.09 0.11 0.09 0.07 0.05 0.03 0.01 0.00 0.00 0.01 0.00 0.00
0.02 0.02 0.01 0.00 0.00 0.00 0.01 0.04 0.08 0.12 0.08 0.04 0.02 0.01 0.00 0.00 0.00 0.00 0.00 0.00 0.00 0.00
0.01 0.01 0.01 0.01 0.01 0.03 0.05 0.07 0.07 0.05 0.03 0.01 0.01 0.02 0.01 0.00 0.00 0.00 0.00 0.01 0.01 0.00
0.01 0.01 0.03 0.05 0.05 0.08 0.07 0.04 0.03 0.03 0.02 0.03 0.04 0.02 0.00 0.00 0.00 0.01 0.01 0.00 0.00 0.00
0.07 0.15 0.21 0.19 0.11 0.04 0.03 0.06 0.06 0.04 0.04 0.01 0.00 0.00 0.00 0.00 0.00 0.00 0.01 0.01 0.00 0.00
0.11 0.14 0.08 0.02 0.02 0.07 0.09 0.06 0.03 0.01 0.00 0.01 0.03 0.00 0.00 0.00 0.00 0.01 0.01 0.01 0.01 0.01
0.01 0.00 0.01 0.05 0.08 0.08 0.06 0.03 0.01 0.00 0.01 0.02 0.03 0.00 0.00 0.00 0.01 0.01 0.01 0.01 0.01 0.02
0.01 0.03 0.05 0.06 0.09 0.06 0.01 0.00 0.00 0.00 0.01 0.02 0.03 0.00 0.00 0.00 0.04 0.06 0.03 0.01 0.02 0.04
0.03 0.07 0.10 0.07 0.01 0.00 0.00 0.00 0.00 0.00 0.01 0.01 0.01 0.01 0.01 0.03 0.14 0.20 0.10 0.05 0.04 0.03
0.03 0.04 0.03 0.01 0.00 0.00 0.00 0.03 0.03 0.03 0.01 0.02 0.02 0.02 0.03 0.04 0.15 0.23 0.22 0.10 0.06 0.06

GFSNIL_prec_precacc_066.txt.gz
Total_Precipitation_Accumulation
0.03 0.04 0.00 0.00 0.00 0.00 0.01 0.02 0.03 0.03 0.02 0.01 0.01 0.02 0.08 0.14 0.22 0.36 0.50 0.54 0.54 0.51
0.03 0.01 0.00 0.00 0.01 0.03 0.03 0.02 0.02 0.05 0.03 0.04 0.10 0.16 0.20 0.25 0.33 0.39 0.35 0.33 0.31 0.26
0.00 0.00 0.00 0.01 0.02 0.02 0.02 0.05 0.08 0.06 0.12 0.18 0.17 0.13 0.14 0.15 0.15 0.16 0.16 0.14 0.11 0.09
0.00 0.00 0.01 0.02 0.03 0.04 0.05 0.05 0.06 0.09 0.08 0.07 0.09 0.09 0.10 0.09 0.07 0.06 0.04 0.02 0.02 0.02
0.00 0.02 0.06 0.07 0.05 0.03 0.02 0.01 0.02 0.04 0.09 0.11 0.09 0.07 0.05 0.03 0.01 0.00 0.00 0.01 0.00 0.00
0.02 0.02 0.02 0.04 0.05 0.02 0.01 0.04 0.08 0.12 0.08 0.04 0.02 0.01 0.00 0.00 0.00 0.00 0.00 0.00 0.00 0.00
0.03 0.02 0.02 0.02 0.01 0.03 0.05 0.07 0.07 0.05 0.03 0.01 0.01 0.02 0.01 0.00 0.00 0.00 0.00 0.01 0.01 0.00
0.03 0.01 0.03 0.05 0.05 0.08 0.07 0.04 0.03 0.03 0.02 0.03 0.04 0.02 0.00 0.00 0.00 0.01 0.01 0.00 0.00 0.00
0.07 0.15 0.21 0.19 0.11 0.04 0.03 0.06 0.06 0.04 0.04 0.01 0.00 0.00 0.00 0.00 0.00 0.00 0.01 0.01 0.00 0.00
0.11 0.14 0.08 0.02 0.02 0.07 0.09 0.06 0.03 0.01 0.00 0.01 0.03 0.00 0.00 0.00 0.00 0.01 0.01 0.01 0.01 0.01
0.01 0.00 0.01 0.05 0.08 0.08 0.06 0.03 0.01 0.00 0.01 0.02 0.03 0.00 0.00 0.00 0.01 0.01 0.01 0.01 0.01 0.02
0.01 0.03 0.05 0.06 0.09 0.06 0.01 0.00 0.00 0.00 0.01 0.02 0.03 0.00 0.00 0.00 0.04 0.06 0.03 0.01 0.02 0.04
0.03 0.07 0.10 0.07 0.01 0.00 0.00 0.00 0.00 0.00 0.01 0.01 0.01 0.01 0.01 0.03 0.14 0.20 0.10 0.05 0.04 0.03
0.03 0.04 0.03 0.01 0.00 0.00 0.00 0.03 0.03 0.03 0.01 0.02 0.02 0.02 0.03 0.04 0.15 0.23 0.22 0.10 0.06 0.06

GFSNIL_prec_precacc_069.txt.gz
Total_Precipitation_Accumulation
0.10 0.08 0.01 0.00 0.00 0.00 0.01 0.02 0.03 0.03 0.03 0.05 0.05 0.03 0.08 0.14 0.22 0.36 0.50 0.54 0.54 0.51
0.07 0.03 0.02 0.01 0.01 0.03 0.03 0.02 0.02 0.07 0.10 0.10 0.11 0.16 0.20 0.25 0.33 0.39 0.35 0.33 0.31 0.26
0.04 0.03 0.02 0.03 0.02 0.02 0.02 0.05 0.10 0.14 0.20 0.21 0.17 0.13 0.14 0.15 0.15 0.16 0.16 0.14 0.11 0.09
0.02 0.02 0.05 0.05 0.04 0.05 0.06 0.09 0.15 0.16 0.10 0.07 0.09 0.09 0.10 0.09 0.07 0.06 0.04 0.02 0.02 0.02
0.04 0.05 0.08 0.08 0.06 0.08 0.11 0.09 0.03 0.04 0.09 0.11 0.09 0.07 0.05 0.03 0.01 0.00 0.00 0.01 0.00 0.00
0.06 0.03 0.04 0.12 0.14 0.04 0.02 0.04 0.08 0.12 0.08 0.04 0.02 0.01 0.00 0.00 0.00 0.00 0.00 0.00 0.00 0.00
0.05 0.05 0.08 0.05 0.03 0.03 0.06 0.07 0.07 0.05 0.03 0.01 0.01 0.02 0.01 0.00 0.00 0.00 0.00 0.01 0.01 0.00
0.17 0.28 0.24 0.11 0.06 0.08 0.08 0.04 0.03 0.03 0.02 0.03 0.04 0.02 0.00 0.00 0.00 0.01 0.01 0.00 0.00 0.00
0.29 0.25 0.22 0.19 0.12 0.05 0.03 0.06 0.06 0.04 0.04 0.01 0.00 0.00 0.00 0.00 0.00 0.00 0.01 0.01 0.00 0.00
0.12 0.14 0.08 0.02 0.02 0.07 0.09 0.06 0.03 0.01 0.00 0.01 0.03 0.00 0.00 0.00 0.00 0.01 0.01 0.01 0.01 0.01
0.01 0.00 0.01 0.05 0.08 0.08 0.06 0.03 0.01 0.00 0.01 0.02 0.03 0.00 0.00 0.00 0.01 0.01 0.01 0.01 0.01 0.02
0.01 0.03 0.05 0.06 0.09 0.06 0.01 0.00 0.00 0.00 0.01 0.02 0.03 0.00 0.00 0.00 0.04 0.06 0.03 0.01 0.02 0.04
0.03 0.07 0.10 0.07 0.01 0.00 0.00 0.00 0.00 0.00 0.01 0.01 0.01 0.01 0.01 0.03 0.14 0.20 0.10 0.05 0.04 0.03
0.03 0.04 0.03 0.01 0.00 0.00 0.00 0.03 0.03 0.03 0.01 0.02 0.02 0.02 0.03 0.04 0.15 0.23 0.22 0.10 0.06 0.06

GFSNIL_prec_precacc_072.txt.gz
Total_Precipitation_Accumulation
0.11 0.09 0.04 0.02 0.00 0.00 0.01 0.02 0.03 0.03 0.03 0.05 0.07 0.06 0.10 0.14 0.22 0.36 0.50 0.54 0.54 0.51
0.07 0.04 0.05 0.03 0.01 0.03 0.03 0.02 0.02 0.07 0.10 0.12 0.16 0.17 0.20 0.25 0.33 0.39 0.35 0.33 0.31 0.26
0.04 0.05 0.05 0.06 0.03 0.02 0.02 0.05 0.10 0.14 0.24 0.29 0.20 0.13 0.14 0.15 0.15 0.16 0.16 0.14 0.11 0.09
0.05 0.05 0.09 0.11 0.08 0.06 0.07 0.09 0.18 0.27 0.22 0.10 0.09 0.09 0.10 0.09 0.07 0.06 0.04 0.02 0.02 0.02
0.09 0.11 0.13 0.13 0.09 0.11 0.15 0.13 0.09 0.08 0.10 0.11 0.09 0.07 0.05 0.03 0.01 0.00 0.00 0.01 0.00 0.00
0.12 0.11 0.11 0.16 0.23 0.22 0.16 0.10 0.10 0.13 0.08 0.04 0.02 0.01 0.00 0.00 0.00 0.00 0.00 0.00 0.00 0.00
0.08 0.08 0.11 0.15 0.22 0.23 0.16 0.11 0.09 0.05 0.03 0.01 0.01 0.02 0.01 0.00 0.00 0.00 0.00 0.01 0.01 0.00
0.18 0.30 0.32 0.34 0.28 0.17 0.10 0.06 0.04 0.03 0.02 0.03 0.04 0.02 0.00 0.00 0.00 0.01 0.01 0.00 0.00 0.00
0.30 0.29 0.30 0.26 0.15 0.06 0.03 0.06 0.06 0.04 0.04 0.01 0.00 0.00 0.00 0.00 0.00 0.00 0.01 0.01 0.00 0.00
0.12 0.15 0.08 0.02 0.02 0.07 0.09 0.06 0.03 0.01 0.00 0.01 0.03 0.00 0.00 0.00 0.00 0.01 0.01 0.01 0.01 0.01
0.01 0.00 0.01 0.05 0.08 0.08 0.06 0.03 0.01 0.00 0.01 0.02 0.03 0.00 0.00 0.00 0.01 0.01 0.01 0.01 0.01 0.02
0.01 0.03 0.05 0.07 0.09 0.06 0.01 0.00 0.00 0.00 0.01 0.02 0.03 0.00 0.00 0.00 0.04 0.06 0.03 0.01 0.02 0.04
0.03 0.07 0.10 0.07 0.01 0.00 0.00 0.00 0.00 0.00 0.01 0.01 0.01 0.01 0.01 0.03 0.14 0.20 0.10 0.05 0.04 0.03
0.03 0.04 0.03 0.01 0.00 0.00 0.00 0.03 0.03 0.03 0.01 0.02 0.02 0.02 0.03 0.04 0.15 0.23 0.23 0.10 0.06 0.07

GFSNIL_prec_precacc_075.txt.gz
Total_Precipitation_Accumulation
0.11 0.09 0.04 0.03 0.02 0.03 0.02 0.02 0.03 0.03 0.03 0.05 0.07 0.06 0.10 0.14 0.22 0.36 0.50 0.54 0.54 0.51
0.07 0.04 0.06 0.06 0.04 0.05 0.05 0.02 0.02 0.07 0.10 0.12 0.16 0.17 0.21 0.26 0.33 0.39 0.35 0.33 0.31 0.26
0.05 0.06 0.06 0.09 0.08 0.07 0.04 0.05 0.10 0.14 0.24 0.30 0.27 0.21 0.20 0.16 0.15 0.16 0.16 0.14 0.11 0.09
0.06 0.06 0.10 0.14 0.15 0.15 0.10 0.10 0.18 0.28 0.27 0.22 0.19 0.15 0.11 0.09 0.07 0.06 0.04 0.02 0.02 0.02
0.11 0.13 0.15 0.15 0.14 0.16 0.20 0.22 0.21 0.19 0.19 0.17 0.11 0.07 0.05 0.03 0.01 0.00 0.00 0.01 0.00 0.00
0.13 0.11 0.12 0.20 0.30 0.31 0.31 0.30 0.21 0.20 0.16 0.08 0.03 0.01 0.00 0.00 0.00 0.00 0.00 0.00 0.00 0.00
0.08 0.08 0.12 0.16 0.28 0.39 0.32 0.26 0.24 0.22 0.14 0.04 0.01 0.02 0.01 0.00 0.00 0.00 0.00 0.01 0.01 0.00
0.20 0.31 0.33 0.35 0.29 0.22 0.17 0.11 0.07 0.05 0.02 0.03 0.04 0.02 0.00 0.00 0.00 0.01 0.01 0.00 0.00 0.00
0.36 0.31 0.31 0.27 0.16 0.07 0.04 0.06 0.06 0.04 0.04 0.01 0.00 0.00 0.00 0.00 0.00 0.00 0.01 0.01 0.00 0.00
0.14 0.15 0.08 0.02 0.02 0.07 0.09 0.06 0.03 0.01 0.00 0.01 0.03 0.00 0.00 0.00 0.00 0.01 0.01 0.01 0.01 0.01
0.01 0.00 0.01 0.05 0.08 0.08 0.06 0.03 0.01 0.00 0.01 0.02 0.03 0.00 0.00 0.00 0.01 0.01 0.01 0.01 0.01 0.02
0.01 0.03 0.05 0.07 0.09 0.06 0.01 0.00 0.00 0.00 0.01 0.02 0.03 0.00 0.00 0.00 0.04 0.06 0.03 0.01 0.02 0.04
0.03 0.07 0.10 0.07 0.01 0.00 0.00 0.00 0.00 0.00 0.01 0.01 0.01 0.01 0.01 0.03 0.14 0.20 0.10 0.05 0.04 0.03
0.03 0.04 0.03 0.01 0.00 0.00 0.00 0.03 0.03 0.03 0.01 0.02 0.02 0.02 0.03 0.04 0.15 0.23 0.23 0.10 0.06 0.07

GFSNIL_prec_precacc_081.txt.gz
Total_Precipitation_Accumulation
0.13 0.10 0.08 0.07 0.12 0.05 0.03 0.03 0.04 0.04 0.03 0.06 0.07 0.06 0.10 0.15 0.22 0.36 0.50 0.54 0.55 0.52
0.11 0.07 0.13 0.31 0.17 0.16 0.07 0.04 0.03 0.07 0.11 0.13 0.16 0.19 0.24 0.32 0.40 0.42 0.36 0.34 0.32 0.27
0.10 0.10 0.15 0.29 0.13 0.15 0.10 0.11 0.16 0.16 0.25 0.31 0.30 0.34 0.46 0.43 0.30 0.23 0.22 0.18 0.12 0.09
0.18 0.16 0.16 0.22 0.29 0.24 0.28 0.26 0.30 0.39 0.45 0.58 0.68 0.58 0.43 0.31 0.22 0.15 0.09 0.05 0.04 0.02
0.28 0.29 0.30 0.33 0.28 0.31 0.32 0.35 0.49 0.55 0.47 0.36 0.25 0.18 0.14 0.11 0.07 0.04 0.02 0.01 0.00 0.00
0.37 0.38 0.46 0.46 0.50 0.46 0.38 0.35 0.30 0.26 0.24 0.21 0.15 0.10 0.08 0.04 0.01 0.00 0.00 0.00 0.00 0.00
0.33 0.40 0.34 0.36 0.40 0.48 0.35 0.28 0.29 0.31 0.26 0.14 0.06 0.04 0.02 0.00 0.00 0.00 0.00 0.01 0.01 0.00
0.49 0.69 0.54 0.50 0.38 0.26 0.21 0.15 0.11 0.08 0.04 0.04 0.04 0.02 0.00 0.00 0.00 0.01 0.01 0.00 0.00 0.00
0.56 0.44 0.46 0.36 0.20 0.09 0.04 0.07 0.07 0.04 0.04 0.01 0.00 0.00 0.00 0.00 0.00 0.00 0.01 0.01 0.00 0.00
0.25 0.22 0.14 0.05 0.04 0.08 0.10 0.07 0.04 0.01 0.01 0.02 0.03 0.01 0.00 0.00 0.00 0.01 0.01 0.01 0.01 0.01
0.05 0.03 0.03 0.07 0.11 0.10 0.07 0.03 0.01 0.00 0.01 0.02 0.03 0.00 0.00 0.00 0.01 0.01 0.01 0.01 0.01 0.02
0.01 0.03 0.06 0.08 0.10 0.06 0.01 0.00 0.00 0.00 0.01 0.02 0.03 0.00 0.00 0.00 0.04 0.06 0.03 0.01 0.02 0.04
0.03 0.07 0.10 0.08 0.01 0.00 0.00 0.00 0.00 0.00 0.01 0.01 0.01 0.01 0.01 0.03 0.14 0.20 0.10 0.05 0.04 0.03
0.03 0.04 0.03 0.01 0.00 0.00 0.00 0.03 0.03 0.03 0.01 0.02 0.02 0.02 0.03 0.04 0.15 0.23 0.23 0.10 0.06 0.07

GFSNIL_prec_precacc_084.txt.gz
Total_Precipitation_Accumulation
0.13 0.10 0.08 0.07 0.12 0.06 0.03 0.03 0.04 0.04 0.03 0.06 0.07 0.06 0.11 0.16 0.25 0.45 0.64 0.67 0.63 0.56
0.14 0.07 0.13 0.31 0.18 0.17 0.08 0.05 0.04 0.11 0.12 0.13 0.16 0.19 0.24 0.37 0.54 0.60 0.54 0.50 0.42 0.31
0.13 0.15 0.17 0.29 0.13 0.16 0.18 0.22 0.32 0.29 0.29 0.32 0.31 0.34 0.51 0.57 0.52 0.43 0.35 0.27 0.19 0.13
0.18 0.18 0.28 0.28 0.32 0.28 0.43 0.47 0.48 0.53 0.51 0.61 0.68 0.59 0.44 0.32 0.24 0.17 0.12 0.07 0.05 0.03
0.30 0.35 0.40 0.54 0.51 0.57 0.63 0.58 0.63 0.68 0.52 0.37 0.25 0.18 0.14 0.11 0.08 0.05 0.03 0.02 0.01 0.00
0.37 0.39 0.66 0.75 0.97 1.02 0.86 0.57 0.38 0.31 0.26 0.22 0.16 0.10 0.08 0.06 0.03 0.03 0.02 0.00 0.00 0.00
0.33 0.43 0.55 0.64 0.72 0.79 0.44 0.35 0.35 0.34 0.29 0.15 0.07 0.06 0.06 0.05 0.03 0.03 0.02 0.01 0.01 0.00
0.56 0.90 0.92 0.91 0.60 0.37 0.26 0.20 0.14 0.09 0.05 0.05 0.06 0.06 0.04 0.02 0.01 0.02 0.02 0.01 0.00 0.00
0.61 0.51 0.54 0.44 0.29 0.14 0.07 0.09 0.08 0.05 0.05 0.04 0.04 0.11 0.08 0.03 0.01 0.01 0.01 0.01 0.00 0.00
0.26 0.23 0.16 0.08 0.06 0.10 0.12 0.08 0.05 0.02 0.02 0.03 0.05 0.04 0.02 0.01 0.01 0.01 0.01 0.01 0.01 0.01
0.05 0.03 0.04 0.08 0.12 0.11 0.11 0.07 0.04 0.04 0.05 0.07 0.07 0.05 0.03 0.01 0.01 0.01 0.01 0.01 0.01 0.02
0.01 0.04 0.06 0.08 0.11 0.08 0.05 0.04 0.04 0.03 0.03 0.03 0.04 0.01 0.00 0.00 0.04 0.06 0.03 0.01 0.02 0.04
0.03 0.07 0.11 0.08 0.03 0.01 0.01 0.01 0.00 0.00 0.01 0.02 0.02 0.01 0.01 0.03 0.14 0.20 0.10 0.05 0.04 0.03
0.03 0.04 0.03 0.01 0.00 0.01 0.01 0.03 0.03 0.03 0.01 0.02 0.02 0.02 0.03 0.04 0.15 0.23 0.23 0.10 0.06 0.07

GFSNIL_prec_precacc_087.txt.gz
Total_Precipitation_Accumulation
0.13 0.10 0.08 0.07 0.12 0.06 0.03 0.03 0.04 0.04 0.04 0.06 0.09 0.09 0.11 0.16 0.25 0.46 0.67 0.73 0.72 0.65
0.14 0.07 0.13 0.31 0.18 0.17 0.08 0.06 0.05 0.13 0.16 0.15 0.18 0.20 0.25 0.39 0.55 0.62 0.58 0.53 0.47 0.38
0.13 0.15 0.17 0.29 0.14 0.17 0.18 0.23 0.36 0.36 0.37 0.38 0.34 0.37 0.53 0.60 0.53 0.45 0.37 0.30 0.21 0.14
0.18 0.18 0.28 0.28 0.33 0.32 0.48 0.54 0.59 0.65 0.62 0.73 0.85 0.70 0.46 0.34 0.25 0.18 0.13 0.08 0.05 0.03
0.30 0.35 0.41 0.56 0.53 0.62 0.77 0.78 0.82 0.86 0.71 0.56 0.40 0.28 0.17 0.12 0.08 0.05 0.03 0.02 0.01 0.00
0.40 0.40 0.67 0.76 1.02 1.15 1.15 1.22 1.13 0.79 0.54 0.37 0.21 0.14 0.10 0.06 0.03 0.03 0.03 0.03 0.03 0.01
0.33 0.44 0.56 0.68 0.82 1.19 1.25 0.94 0.58 0.43 0.35 0.20 0.11 0.08 0.06 0.05 0.06 0.06 0.06 0.04 0.02 0.02
0.56 0.92 0.97 1.00 0.83 0.62 0.39 0.27 0.16 0.11 0.06 0.06 0.07 0.07 0.05 0.04 0.04 0.05 0.05 0.04 0.03 0.01
0.62 0.53 0.56 0.49 0.35 0.21 0.13 0.14 0.11 0.07 0.07 0.07 0.07 0.16 0.16 0.13 0.15 0.18 0.16 0.07 0.02 0.01
0.27 0.24 0.18 0.10 0.10 0.13 0.14 0.12 0.08 0.05 0.05 0.09 0.13 0.22 0.12 0.08 0.05 0.05 0.04 0.03 0.03 0.01
0.06 0.04 0.04 0.08 0.13 0.12 0.12 0.08 0.07 0.09 0.13 0.15 0.19 0.22 0.17 0.16 0.12 0.07 0.02 0.01 0.01 0.02
0.02 0.04 0.06 0.08 0.11 0.09 0.06 0.06 0.08 0.11 0.14 0.15 0.16 0.14 0.09 0.04 0.05 0.06 0.03 0.01 0.02 0.04
0.03 0.07 0.11 0.08 0.03 0.02 0.03 0.06 0.07 0.06 0.06 0.07 0.06 0.06 0.03 0.04 0.14 0.20 0.10 0.05 0.04 0.03
0.03 0.04 0.03 0.01 0.01 0.01 0.02 0.04 0.04 0.04 0.03 0.04 0.05 0.05 0.05 0.06 0.16 0.23 0.23 0.10 0.06 0.07

GFSNIL_prec_precacc_090.txt.gz
Total_Precipitation_Accumulation
0.13 0.10 0.08 0.07 0.12 0.06 0.03 0.03 0.04 0.04 0.04 0.06 0.09 0.09 0.13 0.19 0.29 0.50 0.71 0.75 0.73 0.67
0.14 0.07 0.13 0.31 0.18 0.17 0.08 0.06 0.05 0.13 0.16 0.15 0.18 0.20 0.28 0.41 0.59 0.68 0.61 0.55 0.48 0.39
0.13 0.15 0.17 0.29 0.14 0.17 0.18 0.23 0.36 0.36 0.37 0.39 0.34 0.38 0.57 0.63 0.59 0.49 0.40 0.31 0.24 0.18
0.18 0.18 0.28 0.28 0.33 0.32 0.48 0.55 0.59 0.65 0.63 0.74 0.88 0.81 0.68 0.58 0.45 0.30 0.17 0.10 0.08 0.05
0.30 0.35 0.41 0.56 0.53 0.63 0.78 0.82 0.91 0.96 0.84 0.75 0.75 0.75 0.67 0.56 0.41 0.18 0.06 0.04 0.03 0.01
0.40 0.40 0.68 0.77 1.02 1.16 1.16 1.25 1.27 1.26 1.05 0.88 0.68 0.48 0.33 0.22 0.13 0.08 0.07 0.06 0.05 0.03
0.35 0.46 0.58 0.69 0.83 1.21 1.28 1.03 0.80 0.72 0.51 0.22 0.12 0.09 0.09 0.09 0.10 0.11 0.11 0.08 0.06 0.04
0.56 0.93 0.98 1.04 0.88 0.69 0.47 0.37 0.28 0.19 0.12 0.08 0.07 0.09 0.08 0.07 0.06 0.07 0.08 0.11 0.13 0.14
0.62 0.54 0.59 0.53 0.38 0.24 0.18 0.19 0.17 0.15 0.13 0.11 0.10 0.21 0.20 0.16 0.16 0.19 0.22 0.22 0.17 0.14
0.28 0.25 0.19 0.12 0.12 0.16 0.18 0.15 0.12 0.09 0.09 0.11 0.16 0.30 0.25 0.22 0.15 0.16 0.16 0.13 0.11 0.09
0.06 0.05 0.05 0.09 0.14 0.14 0.14 0.10 0.09 0.11 0.16 0.21 0.33 0.44 0.32 0.33 0.28 0.30 0.24 0.20 0.15 0.09
0.03 0.05 0.08 0.10 0.13 0.10 0.07 0.07 0.10 0.13 0.16 0.19 0.25 0.31 0.23 0.19 0.17 0.18 0.10 0.07 0.05 0.05
0.04 0.09 0.12 0.09 0.04 0.03 0.05 0.10 0.10 0.11 0.10 0.15 0.10 0.16 0.11 0.08 0.16 0.22 0.11 0.08 0.07 0.07
0.03 0.04 0.03 0.02 0.01 0.02 0.03 0.05 0.05 0.04 0.03 0.05 0.07 0.08 0.09 0.09 0.19 0.28 0.28 0.15 0.08 0.07

GFSNIL_prec_precacc_093.txt.gz
Total_Precipitation_Accumulation
0.13 0.10 0.08 0.07 0.12 0.06 0.03 0.03 0.04 0.04 0.04 0.06 0.09 0.09 0.13 0.19 0.29 0.51 0.74 0.79 0.78 0.73
0.14 0.07 0.13 0.31 0.18 0.17 0.08 0.06 0.05 0.13 0.16 0.15 0.18 0.20 0.28 0.41 0.59 0.69 0.63 0.58 0.52 0.43
0.13 0.15 0.17 0.29 0.14 0.17 0.18 0.23 0.36 0.36 0.37 0.39 0.34 0.38 0.57 0.64 0.59 0.50 0.43 0.35 0.28 0.21
0.18 0.18 0.28 0.28 0.33 0.32 0.48 0.55 0.59 0.65 0.63 0.74 0.89 0.82 0.69 0.59 0.48 0.39 0.32 0.24 0.19 0.13
0.30 0.35 0.41 0.56 0.53 0.63 0.78 0.82 0.91 0.96 0.85 0.77 0.79 0.91 0.94 0.82 0.70 0.58 0.47 0.36 0.29 0.18
0.40 0.40 0.68 0.77 1.02 1.16 1.16 1.25 1.28 1.28 1.10 0.94 0.81 0.65 0.53 0.38 0.31 0.26 0.25 0.21 0.16 0.13
0.35 0.46 0.59 0.70 0.83 1.22 1.29 1.03 0.81 0.74 0.56 0.28 0.14 0.10 0.09 0.10 0.12 0.14 0.16 0.15 0.14 0.15
0.56 0.93 0.98 1.04 0.89 0.70 0.49 0.40 0.31 0.24 0.16 0.13 0.11 0.11 0.10 0.08 0.07 0.08 0.10 0.13 0.16 0.18
0.62 0.54 0.59 0.53 0.39 0.26 0.20 0.21 0.19 0.17 0.16 0.15 0.13 0.25 0.23 0.18 0.17 0.20 0.22 0.22 0.19 0.17
0.28 0.25 0.20 0.13 0.12 0.17 0.18 0.16 0.13 0.10 0.10 0.14 0.20 0.39 0.29 0.27 0.16 0.19 0.25 0.30 0.36 0.40
0.07 0.05 0.05 0.10 0.15 0.15 0.15 0.12 0.11 0.14 0.22 0.26 0.39 0.49 0.35 0.37 0.30 0.35 0.40 0.39 0.32 0.26
0.04 0.06 0.09 0.12 0.14 0.11 0.09 0.11 0.15 0.17 0.19 0.21 0.27 0.35 0.24 0.20 0.17 0.19 0.16 0.12 0.11 0.12
0.06 0.10 0.14 0.11 0.05 0.05 0.08 0.12 0.11 0.13 0.12 0.16 0.12 0.19 0.14 0.11 0.17 0.25 0.15 0.13 0.13 0.15
0.05 0.06 0.05 0.04 0.03 0.04 0.05 0.06 0.06 0.05 0.04 0.06 0.08 0.09 0.11 0.11 0.22 0.32 0.33 0.20 0.14 0.12

GFSNIL_prec_precacc_099.txt.gz
Total_Precipitation_Accumulation
0.13 0.10 0.08 0.07 0.12 0.06 0.04 0.03 0.04 0.04 0.04 0.07 0.11 0.12 0.19 0.29 0.37 0.57 0.78 0.81 0.78 0.75
0.14 0.07 0.13 0.31 0.18 0.18 0.08 0.06 0.05 0.13 0.16 0.15 0.19 0.22 0.32 0.45 0.62 0.75 0.68 0.62 0.56 0.47
0.13 0.15 0.17 0.29 0.14 0.17 0.18 0.23 0.36 0.36 0.37 0.39 0.35 0.38 0.58 0.65 0.61 0.55 0.46 0.38 0.30 0.22
0.18 0.18 0.28 0.28 0.33 0.32 0.48 0.55 0.59 0.65 0.63 0.74 0.89 0.82 0.69 0.59 0.48 0.40 0.33 0.25 0.23 0.22
0.30 0.35 0.41 0.56 0.53 0.63 0.78 0.82 0.91 0.96 0.85 0.77 0.79 0.91 0.94 0.83 0.71 0.62 0.55 0.48 0.48 0.45
0.40 0.40 0.68 0.77 1.02 1.16 1.16 1.25 1.28 1.28 1.10 0.94 0.81 0.65 0.56 0.47 0.37 0.29 0.27 0.25 0.26 0.22
0.35 0.46 0.59 0.70 0.83 1.22 1.29 1.03 0.81 0.74 0.56 0.28 0.14 0.10 0.10 0.10 0.12 0.15 0.17 0.17 0.18 0.20
0.56 0.93 0.98 1.04 0.89 0.70 0.49 0.41 0.32 0.24 0.17 0.15 0.12 0.12 0.10 0.10 0.11 0.13 0.16 0.22 0.30 0.32
0.62 0.54 0.59 0.53 0.39 0.26 0.21 0.22 0.20 0.19 0.17 0.16 0.15 0.28 0.26 0.22 0.22 0.29 0.33 0.33 0.27 0.24
0.28 0.25 0.20 0.13 0.13 0.17 0.19 0.16 0.14 0.11 0.11 0.16 0.23 0.50 0.34 0.37 0.22 0.23 0.29 0.35 0.41 0.45
0.07 0.05 0.06 0.10 0.17 0.17 0.17 0.13 0.12 0.17 0.26 0.32 0.48 0.61 0.41 0.42 0.31 0.37 0.42 0.41 0.34 0.29
0.04 0.06 0.11 0.16 0.19 0.16 0.13 0.16 0.18 0.22 0.24 0.26 0.32 0.43 0.27 0.22 0.17 0.19 0.16 0.12 0.12 0.15
0.06 0.11 0.15 0.12 0.08 0.07 0.11 0.16 0.15 0.18 0.15 0.20 0.13 0.23 0.16 0.12 0.17 0.25 0.16 0.13 0.16 0.22
0.05 0.06 0.05 0.05 0.05 0.07 0.08 0.09 0.08 0.07 0.05 0.06 0.09 0.12 0.14 0.13 0.22 0.32 0.35 0.23 0.17 0.17

GFSNIL_prec_precacc_102.txt.gz
Total_Precipitation_Accumulation
0.13 0.10 0.09 0.07 0.13 0.07 0.08 0.06 0.06 0.05 0.05 0.09 0.13 0.14 0.23 0.35 0.40 0.60 0.81 0.85 0.82 0.79
0.14 0.07 0.13 0.31 0.18 0.18 0.08 0.07 0.05 0.13 0.16 0.16 0.19 0.23 0.32 0.46 0.65 0.75 0.69 0.64 0.60 0.51
0.13 0.15 0.17 0.29 0.14 0.17 0.19 0.23 0.37 0.36 0.37 0.39 0.35 0.38 0.58 0.65 0.61 0.55 0.47 0.40 0.32 0.27
0.18 0.18 0.28 0.28 0.33 0.32 0.48 0.55 0.59 0.65 0.63 0.74 0.89 0.82 0.69 0.60 0.48 0.40 0.33 0.26 0.25 0.23
0.30 0.35 0.41 0.56 0.53 0.63 0.78 0.82 0.91 0.96 0.85 0.77 0.79 0.91 0.94 0.83 0.71 0.62 0.55 0.48 0.49 0.46
0.40 0.40 0.68 0.77 1.02 1.16 1.16 1.25 1.28 1.28 1.10 0.94 0.81 0.65 0.56 0.47 0.37 0.30 0.27 0.25 0.28 0.25
0.35 0.46 0.59 0.70 0.83 1.22 1.29 1.03 0.81 0.74 0.56 0.28 0.14 0.10 0.10 0.10 0.12 0.16 0.20 0.22 0.23 0.23
0.56 0.93 0.98 1.04 0.89 0.70 0.49 0.41 0.32 0.24 0.18 0.15 0.13 0.12 0.10 0.10 0.13 0.15 0.19 0.27 0.37 0.43
0.62 0.54 0.59 0.53 0.39 0.26 0.21 0.22 0.20 0.19 0.18 0.16 0.15 0.28 0.26 0.23 0.23 0.30 0.36 0.40 0.37 0.35
0.28 0.25 0.20 0.13 0.13 0.17 0.19 0.16 0.14 0.11 0.11 0.16 0.24 0.51 0.35 0.39 0.24 0.28 0.37 0.42 0.47 0.50
0.07 0.05 0.06 0.10 0.17 0.17 0.17 0.14 0.13 0.17 0.27 0.33 0.50 0.64 0.43 0.46 0.33 0.39 0.46 0.45 0.38 0.32
0.04 0.06 0.11 0.16 0.19 0.16 0.14 0.17 0.20 0.24 0.27 0.29 0.36 0.49 0.31 0.25 0.18 0.21 0.19 0.15 0.14 0.16
0.06 0.11 0.15 0.12 0.08 0.08 0.12 0.18 0.19 0.22 0.19 0.25 0.16 0.29 0.19 0.15 0.17 0.27 0.17 0.14 0.16 0.24
0.05 0.07 0.06 0.05 0.06 0.09 0.10 0.12 0.11 0.09 0.07 0.08 0.11 0.16 0.18 0.15 0.22 0.32 0.35 0.23 0.17 0.17

GFSNIL_prec_precacc_105.txt.gz
Total_Precipitation_Accumulation
0.13 0.10 0.09 0.08 0.14 0.11 0.15 0.20 0.22 0.16 0.14 0.17 0.19 0.18 0.26 0.37 0.45 0.62 0.83 0.87 0.85 0.81
0.14 0.07 0.13 0.31 0.18 0.18 0.09 0.09 0.10 0.19 0.21 0.19 0.23 0.24 0.33 0.47 0.66 0.78 0.71 0.65 0.61 0.52
0.13 0.15 0.17 0.29 0.14 0.17 0.19 0.23 0.38 0.37 0.37 0.39 0.35 0.38 0.58 0.65 0.62 0.56 0.47 0.40 0.32 0.27
0.18 0.18 0.28 0.28 0.33 0.32 0.48 0.55 0.59 0.65 0.63 0.74 0.89 0.82 0.69 0.60 0.48 0.40 0.33 0.27 0.25 0.23
0.30 0.35 0.41 0.56 0.53 0.63 0.78 0.82 0.91 0.96 0.85 0.77 0.79 0.91 0.94 0.83 0.71 0.62 0.55 0.48 0.50 0.46
0.40 0.40 0.68 0.77 1.02 1.16 1.16 1.25 1.28 1.28 1.10 0.94 0.81 0.65 0.56 0.47 0.37 0.30 0.27 0.26 0.30 0.28
0.35 0.46 0.59 0.70 0.83 1.22 1.29 1.03 0.81 0.74 0.56 0.29 0.15 0.10 0.10 0.11 0.13 0.17 0.23 0.25 0.25 0.24
0.56 0.93 0.98 1.04 0.89 0.70 0.49 0.41 0.32 0.24 0.18 0.16 0.13 0.12 0.10 0.10 0.14 0.16 0.19 0.27 0.37 0.43
0.62 0.54 0.59 0.53 0.39 0.26 0.21 0.22 0.20 0.19 0.18 0.16 0.15 0.29 0.27 0.23 0.24 0.31 0.37 0.42 0.38 0.37
0.28 0.25 0.20 0.13 0.13 0.18 0.19 0.16 0.14 0.12 0.12 0.17 0.25 0.53 0.37 0.40 0.24 0.29 0.39 0.46 0.52 0.58
0.07 0.05 0.06 0.10 0.17 0.17 0.18 0.14 0.13 0.18 0.28 0.34 0.52 0.67 0.45 0.48 0.35 0.43 0.51 0.51 0.47 0.43
0.04 0.06 0.11 0.16 0.20 0.17 0.16 0.18 0.21 0.25 0.29 0.30 0.39 0.54 0.34 0.28 0.19 0.25 0.24 0.23 0.26 0.33
0.06 0.11 0.15 0.13 0.10 0.10 0.15 0.20 0.21 0.26 0.23 0.31 0.19 0.36 0.24 0.19 0.18 0.31 0.27 0.28 0.31 0.34
0.07 0.07 0.06 0.08 0.09 0.12 0.14 0.16 0.16 0.14 0.11 0.12 0.15 0.23 0.24 0.19 0.24 0.35 0.37 0.24 0.17 0.17

GFSNIL_prec_precacc_108.txt.gz
Total_Precipitation_Accumulation
0.13 0.10 0.09 0.08 0.16 0.16 0.28 0.50 0.53 0.44 0.24 0.25 0.28 0.28 0.37 0.49 0.53 0.68 0.86 0.90 0.86 0.81
0.14 0.07 0.13 0.31 0.20 0.28 0.16 0.27 0.38 0.53 0.51 0.39 0.37 0.35 0.42 0.54 0.71 0.81 0.72 0.66 0.62 0.53
0.13 0.15 0.17 0.29 0.14 0.20 0.22 0.33 0.48 0.63 0.67 0.65 0.52 0.48 0.64 0.69 0.65 0.58 0.48 0.40 0.32 0.27
0.18 0.18 0.28 0.28 0.33 0.32 0.48 0.58 0.63 0.72 0.86 0.96 1.01 0.88 0.73 0.62 0.49 0.40 0.33 0.27 0.25 0.24
0.30 0.35 0.41 0.56 0.53 0.63 0.78 0.82 0.91 0.96 0.89 0.81 0.80 0.91 0.94 0.83 0.71 0.62 0.55 0.48 0.50 0.46
0.40 0.40 0.68 0.77 1.02 1.16 1.16 1.25 1.28 1.28 1.10 0.94 0.81 0.65 0.56 0.47 0.37 0.30 0.27 0.26 0.30 0.28
0.35 0.46 0.59 0.70 0.83 1.22 1.29 1.03 0.81 0.74 0.56 0.29 0.15 0.10 0.10 0.11 0.13 0.17 0.23 0.25 0.25 0.24
0.56 0.93 0.98 1.04 0.89 0.70 0.49 0.41 0.32 0.24 0.18 0.16 0.13 0.12 0.10 0.10 0.14 0.16 0.19 0.27 0.37 0.43
0.62 0.54 0.59 0.53 0.39 0.26 0.21 0.22 0.20 0.19 0.18 0.16 0.15 0.29 0.27 0.23 0.24 0.31 0.37 0.42 0.39 0.40
0.28 0.25 0.20 0.13 0.13 0.18 0.19 0.16 0.14 0.12 0.12 0.17 0.25 0.55 0.37 0.41 0.25 0.31 0.41 0.48 0.55 0.63
0.07 0.05 0.06 0.10 0.17 0.17 0.18 0.15 0.14 0.19 0.29 0.35 0.54 0.70 0.47 0.50 0.36 0.45 0.54 0.55 0.50 0.48
0.04 0.06 0.11 0.16 0.20 0.17 0.16 0.20 0.22 0.28 0.31 0.32 0.41 0.59 0.37 0.30 0.19 0.27 0.29 0.30 0.38 0.45
0.07 0.11 0.15 0.13 0.10 0.11 0.16 0.21 0.23 0.29 0.27 0.35 0.21 0.41 0.27 0.21 0.19 0.35 0.36 0.39 0.46 0.51
0.09 0.07 0.07 0.08 0.10 0.14 0.16 0.18 0.18 0.16 0.13 0.14 0.19 0.30 0.29 0.22 0.25 0.37 0.42 0.32 0.26 0.22

GFSNIL_prec_precacc_114.txt.gz
Total_Precipitation_Accumulation
0.13 0.10 0.09 0.08 0.18 0.24 0.42 0.94 0.98 0.71 0.38 0.35 0.39 0.40 0.49 0.64 0.69 0.82 1.02 1.09 0.97 0.87
0.14 0.07 0.13 0.31 0.20 0.35 0.35 0.58 0.80 1.02 0.91 0.67 0.59 0.61 0.73 0.88 1.09 1.15 1.06 1.01 0.95 0.75
0.13 0.15 0.17 0.29 0.14 0.22 0.32 0.57 0.89 1.11 1.27 1.19 0.92 0.91 1.14 1.22 1.11 1.09 1.00 0.86 0.74 0.61
0.18 0.18 0.28 0.28 0.33 0.33 0.51 0.69 0.95 1.24 1.44 1.60 1.50 1.37 1.36 1.20 0.96 0.79 0.78 0.74 0.61 0.47
0.30 0.36 0.41 0.56 0.53 0.63 0.78 0.84 1.05 1.34 1.53 1.50 1.49 1.42 1.42 1.33 1.17 1.01 0.83 0.71 0.76 0.69
0.41 0.41 0.68 0.77 1.02 1.16 1.16 1.25 1.31 1.33 1.33 1.40 1.26 1.22 1.02 0.84 0.67 0.56 0.48 0.46 0.43 0.36
0.35 0.46 0.60 0.70 0.83 1.22 1.29 1.03 0.81 0.75 0.58 0.39 0.34 0.39 0.52 0.39 0.35 0.33 0.30 0.29 0.29 0.25
0.57 0.94 0.99 1.04 0.90 0.70 0.49 0.41 0.32 0.25 0.19 0.18 0.18 0.28 0.28 0.24 0.19 0.22 0.21 0.28 0.38 0.44
0.63 0.55 0.60 0.54 0.40 0.26 0.21 0.22 0.20 0.19 0.18 0.18 0.17 0.36 0.35 0.30 0.25 0.32 0.37 0.43 0.40 0.41
0.28 0.26 0.20 0.14 0.14 0.18 0.20 0.17 0.15 0.13 0.12 0.17 0.26 0.58 0.40 0.43 0.25 0.32 0.43 0.50 0.57 0.65
0.07 0.05 0.06 0.11 0.17 0.17 0.19 0.16 0.15 0.21 0.31 0.35 0.55 0.73 0.48 0.52 0.36 0.47 0.56 0.58 0.54 0.53
0.04 0.06 0.11 0.17 0.20 0.18 0.17 0.22 0.24 0.29 0.32 0.33 0.43 0.64 0.41 0.32 0.21 0.30 0.33 0.35 0.44 0.51
0.12 0.12 0.15 0.13 0.11 0.12 0.17 0.23 0.26 0.31 0.30 0.38 0.23 0.46 0.32 0.25 0.20 0.38 0.39 0.45 0.59 0.69
0.17 0.14 0.08 0.08 0.11 0.15 0.19 0.20 0.21 0.20 0.15 0.16 0.23 0.36 0.36 0.30 0.27 0.39 0.47 0.42 0.39 0.42

GFSNIL_prec_precacc_117.txt.gz
Total_Precipitation_Accumulation
0.13 0.10 0.09 0.08 0.18 0.24 0.46 1.00 1.01 0.71 0.39 0.39 0.44 0.42 0.50 0.64 0.69 0.82 1.02 1.09 0.97 0.87
0.14 0.07 0.13 0.31 0.20 0.36 0.36 0.60 0.86 1.07 0.93 0.68 0.61 0.63 0.74 0.88 1.09 1.15 1.07 1.01 0.95 0.75
0.13 0.15 0.17 0.29 0.14 0.22 0.32 0.58 0.91 1.17 1.51 1.48 1.03 0.94 1.16 1.24 1.12 1.09 1.02 0.91 0.81 0.70
0.18 0.18 0.28 0.28 0.33 0.33 0.51 0.69 0.95 1.29 1.68 2.08 1.85 1.59 1.46 1.28 1.02 0.83 0.80 0.80 0.76 0.68
0.31 0.36 0.41 0.56 0.53 0.63 0.78 0.84 1.05 1.36 1.71 1.85 1.83 1.66 1.71 1.59 1.36 1.22 0.98 0.80 0.87 0.84
0.41 0.41 0.69 0.77 1.02 1.16 1.16 1.26 1.31 1.34 1.45 1.62 1.49 1.47 1.34 1.17 1.02 0.98 0.86 0.66 0.55 0.49
0.36 0.47 0.60 0.70 0.83 1.22 1.29 1.04 0.82 0.75 0.60 0.55 0.62 0.68 0.84 0.84 0.92 0.90 0.76 0.58 0.48 0.38
0.57 0.94 1.00 1.05 0.90 0.71 0.50 0.41 0.32 0.25 0.19 0.20 0.31 0.60 0.58 0.67 0.55 0.55 0.49 0.40 0.45 0.54
0.63 0.55 0.60 0.55 0.40 0.27 0.22 0.23 0.21 0.19 0.18 0.20 0.21 0.51 0.57 0.64 0.50 0.48 0.57 0.56 0.45 0.44
0.28 0.26 0.21 0.15 0.15 0.20 0.22 0.19 0.16 0.15 0.13 0.18 0.30 0.68 0.54 0.68 0.42 0.39 0.57 0.61 0.62 0.68
0.07 0.05 0.06 0.12 0.19 0.19 0.21 0.17 0.17 0.23 0.33 0.36 0.58 0.77 0.54 0.59 0.42 0.51 0.58 0.60 0.55 0.53
0.04 0.06 0.12 0.17 0.22 0.19 0.19 0.24 0.25 0.30 0.34 0.35 0.44 0.69 0.46 0.34 0.21 0.31 0.35 0.36 0.45 0.52
0.12 0.12 0.16 0.14 0.11 0.14 0.18 0.25 0.29 0.33 0.31 0.41 0.24 0.49 0.37 0.29 0.22 0.41 0.42 0.47 0.62 0.72
0.17 0.14 0.08 0.08 0.11 0.16 0.20 0.21 0.23 0.22 0.17 0.19 0.24 0.37 0.39 0.33 0.28 0.40 0.48 0.43 0.41 0.47

GFSNIL_prec_precacc_120.txt.gz
Total_Precipitation_Accumulation
0.14 0.11 0.09 0.09 0.18 0.24 0.46 1.02 1.01 0.71 0.40 0.53 0.73 0.61 0.57 0.65 0.69 0.82 1.02 1.09 0.97 0.87
0.16 0.08 0.13 0.32 0.21 0.37 0.37 0.66 0.92 1.08 0.93 0.69 0.71 0.82 0.81 0.90 1.09 1.15 1.07 1.01 0.95 0.75
0.14 0.15 0.17 0.30 0.14 0.23 0.33 0.60 0.97 1.26 1.58 1.49 1.04 0.98 1.25 1.29 1.13 1.10 1.02 0.91 0.81 0.70
0.24 0.21 0.28 0.29 0.33 0.33 0.51 0.70 0.98 1.38 1.85 2.33 2.03 1.66 1.48 1.32 1.05 0.84 0.80 0.80 0.76 0.68
0.36 0.37 0.41 0.56 0.53 0.63 0.79 0.85 1.05 1.37 1.77 2.09 2.36 2.07 1.84 1.64 1.39 1.23 0.99 0.80 0.88 0.86
0.44 0.42 0.69 0.77 1.02 1.16 1.17 1.26 1.31 1.35 1.46 1.66 1.72 1.95 1.67 1.32 1.12 1.07 0.94 0.73 0.61 0.56
0.37 0.47 0.60 0.70 0.84 1.22 1.29 1.04 0.82 0.75 0.61 0.57 0.73 0.94 1.07 1.08 1.15 1.13 1.08 0.94 0.82 0.63
0.58 0.94 1.00 1.05 0.90 0.71 0.50 0.41 0.33 0.26 0.19 0.21 0.39 0.81 0.85 0.96 0.88 1.03 0.98 0.90 0.90 0.93
0.64 0.56 0.61 0.55 0.40 0.27 0.22 0.23 0.21 0.19 0.18 0.20 0.22 0.65 0.78 0.86 0.78 0.84 0.97 0.91 0.70 0.63
0.29 0.27 0.21 0.15 0.15 0.20 0.22 0.19 0.16 0.15 0.13 0.18 0.31 0.70 0.61 0.85 0.64 0.58 0.79 0.95 0.86 0.79
0.07 0.06 0.07 0.12 0.19 0.19 0.21 0.18 0.17 0.23 0.33 0.37 0.60 0.79 0.57 0.69 0.68 0.62 0.68 0.75 0.75 0.66
0.04 0.07 0.12 0.17 0.22 0.19 0.19 0.24 0.25 0.30 0.34 0.35 0.45 0.72 0.49 0.37 0.30 0.39 0.44 0.41 0.50 0.57
0.13 0.12 0.16 0.14 0.12 0.14 0.19 0.25 0.30 0.33 0.31 0.43 0.24 0.52 0.40 0.31 0.22 0.43 0.44 0.50 0.66 0.76
0.17 0.14 0.09 0.09 0.12 0.16 0.20 0.21 0.23 0.23 0.18 0.19 0.25 0.39 0.41 0.36 0.28 0.41 0.48 0.43 0.42 0.49

GFSNIL_prec_precacc_123.txt.gz
Total_Precipitation_Accumulation
0.15 0.12 0.09 0.09 0.19 0.25 0.47 1.02 1.02 0.71 0.40 0.55 0.84 0.85 0.86 0.89 0.92 0.92 1.07 1.12 0.98 0.87
0.21 0.10 0.14 0.32 0.22 0.37 0.37 0.67 0.92 1.08 0.93 0.69 0.76 1.06 1.13 1.14 1.30 1.29 1.13 1.06 0.97 0.76
0.19 0.18 0.17 0.30 0.15 0.24 0.34 0.61 0.98 1.29 1.59 1.49 1.05 1.03 1.49 1.52 1.29 1.20 1.07 0.94 0.83 0.71
0.33 0.31 0.31 0.29 0.33 0.34 0.52 0.71 0.99 1.39 1.89 2.40 2.07 1.67 1.50 1.45 1.19 0.91 0.83 0.81 0.77 0.68
0.43 0.41 0.43 0.57 0.54 0.64 0.80 0.86 1.06 1.38 1.82 2.17 2.49 2.30 1.96 1.68 1.48 1.32 1.02 0.81 0.89 0.86
0.47 0.43 0.70 0.77 1.02 1.17 1.17 1.27 1.32 1.36 1.48 1.70 1.80 2.11 1.89 1.49 1.17 1.11 0.98 0.75 0.62 0.56
0.42 0.49 0.63 0.71 0.84 1.23 1.29 1.04 0.82 0.76 0.62 0.58 0.74 1.01 1.24 1.30 1.34 1.19 1.10 0.99 0.87 0.67
0.62 0.97 1.02 1.06 0.91 0.71 0.50 0.41 0.33 0.26 0.20 0.22 0.40 0.82 0.90 1.07 1.09 1.27 1.19 1.10 1.12 1.11
0.70 0.60 0.63 0.57 0.42 0.28 0.23 0.24 0.21 0.20 0.18 0.20 0.22 0.66 0.88 1.04 1.03 1.17 1.29 1.17 0.95 0.89
0.35 0.31 0.24 0.17 0.16 0.21 0.23 0.19 0.16 0.15 0.13 0.18 0.31 0.71 0.66 1.00 0.80 0.83 1.09 1.25 1.17 1.09
0.13 0.10 0.09 0.14 0.20 0.20 0.21 0.18 0.17 0.23 0.33 0.37 0.60 0.80 0.58 0.71 0.75 0.76 0.91 0.96 0.97 0.90
0.12 0.10 0.14 0.18 0.22 0.19 0.19 0.24 0.25 0.30 0.35 0.35 0.45 0.74 0.50 0.38 0.32 0.46 0.54 0.51 0.66 0.76
0.23 0.15 0.16 0.14 0.12 0.14 0.19 0.25 0.30 0.33 0.31 0.43 0.24 0.53 0.42 0.31 0.23 0.44 0.47 0.54 0.73 0.87
0.29 0.16 0.09 0.09 0.12 0.16 0.20 0.21 0.23 0.23 0.18 0.19 0.26 0.40 0.44 0.38 0.28 0.41 0.49 0.45 0.44 0.52

GFSNIL_prec_precacc_126.txt.gz
Total_Precipitation_Accumulation
0.16 0.13 0.11 0.12 0.19 0.25 0.47 1.02 1.02 0.71 0.41 0.55 0.84 0.86 0.89 0.96 1.10 1.10 1.18 1.19 1.02 0.90
0.21 0.11 0.16 0.33 0.22 0.38 0.37 0.67 0.92 1.08 0.93 0.69 0.76 1.07 1.18 1.25 1.49 1.51 1.33 1.16 1.04 0.80
0.19 0.18 0.20 0.31 0.16 0.25 0.35 0.61 0.98 1.29 1.59 1.49 1.05 1.03 1.55 1.68 1.57 1.47 1.30 1.12 0.96 0.79
0.33 0.31 0.32 0.31 0.35 0.35 0.53 0.72 0.99 1.39 1.89 2.40 2.08 1.67 1.51 1.52 1.42 1.20 1.07 1.09 0.99 0.79
0.43 0.42 0.45 0.58 0.56 0.67 0.81 0.88 1.07 1.38 1.82 2.17 2.49 2.30 1.97 1.70 1.56 1.50 1.21 0.99 1.10 1.01
0.48 0.44 0.73 0.80 1.05 1.18 1.19 1.28 1.34 1.37 1.49 1.70 1.81 2.11 1.91 1.51 1.20 1.19 1.12 0.89 0.75 0.66
0.43 0.51 0.65 0.75 0.86 1.25 1.31 1.05 0.84 0.77 0.63 0.59 0.74 1.02 1.25 1.33 1.40 1.24 1.19 1.12 0.99 0.74
0.63 1.00 1.07 1.10 0.93 0.74 0.53 0.42 0.33 0.27 0.21 0.23 0.41 0.85 0.91 1.07 1.10 1.32 1.26 1.19 1.25 1.21
0.72 0.64 0.69 0.62 0.45 0.29 0.25 0.25 0.21 0.20 0.19 0.20 0.22 0.68 0.91 1.07 1.05 1.22 1.48 1.33 1.06 1.00
0.37 0.36 0.30 0.21 0.19 0.23 0.24 0.20 0.17 0.15 0.13 0.18 0.31 0.72 0.67 1.02 0.85 0.96 1.34 1.49 1.42 1.30
0.14 0.14 0.16 0.21 0.22 0.22 0.22 0.18 0.17 0.23 0.33 0.37 0.60 0.81 0.59 0.71 0.77 0.84 1.09 1.24 1.28 1.24
0.14 0.16 0.26 0.34 0.25 0.21 0.20 0.25 0.26 0.30 0.35 0.35 0.45 0.75 0.51 0.39 0.32 0.48 0.62 0.69 0.91 1.04
0.29 0.28 0.35 0.30 0.16 0.15 0.19 0.26 0.31 0.34 0.32 0.44 0.25 0.54 0.44 0.33 0.23 0.44 0.48 0.56 0.80 1.02
0.37 0.37 0.29 0.22 0.15 0.17 0.22 0.23 0.25 0.24 0.18 0.19 0.26 0.40 0.45 0.39 0.28 0.41 0.50 0.45 0.44 0.54

GFSNIL_prec_precacc_129.txt.gz
Total_Precipitation_Accumulation
0.16 0.15 0.13 0.14 0.21 0.26 0.47 1.02 1.02 0.72 0.42 0.56 0.84 0.86 0.90 0.97 1.12 1.23 1.36 1.42 1.22 0.96
0.22 0.11 0.17 0.36 0.25 0.40 0.38 0.67 0.94 1.08 0.94 0.70 0.77 1.07 1.18 1.25 1.51 1.59 1.52 1.41 1.29 0.88
0.20 0.19 0.21 0.34 0.20 0.28 0.36 0.62 1.00 1.30 1.60 1.50 1.05 1.03 1.55 1.68 1.58 1.54 1.44 1.45 1.27 0.91
0.33 0.31 0.33 0.35 0.40 0.40 0.55 0.72 1.03 1.41 1.89 2.41 2.08 1.67 1.51 1.52 1.43 1.25 1.18 1.28 1.21 0.95
0.44 0.43 0.45 0.61 0.62 0.71 0.85 0.90 1.10 1.42 1.83 2.17 2.49 2.30 1.97 1.70 1.56 1.51 1.28 1.18 1.38 1.22
0.48 0.45 0.74 0.81 1.09 1.24 1.27 1.34 1.37 1.40 1.51 1.70 1.81 2.11 1.91 1.51 1.20 1.19 1.14 0.96 0.94 0.96
0.43 0.52 0.67 0.76 0.89 1.31 1.41 1.11 0.89 0.81 0.66 0.59 0.74 1.02 1.25 1.33 1.40 1.24 1.19 1.14 1.06 0.91
0.63 1.00 1.09 1.13 0.97 0.77 0.64 0.52 0.39 0.32 0.25 0.24 0.42 0.85 0.91 1.07 1.10 1.32 1.26 1.20 1.26 1.28
0.72 0.64 0.70 0.64 0.49 0.33 0.31 0.31 0.25 0.22 0.21 0.23 0.26 0.72 0.91 1.08 1.06 1.22 1.49 1.34 1.10 1.10
0.37 0.36 0.31 0.23 0.25 0.29 0.30 0.24 0.18 0.16 0.14 0.19 0.32 0.74 0.69 1.05 0.87 0.98 1.36 1.53 1.57 1.58
0.14 0.14 0.17 0.27 0.33 0.32 0.31 0.21 0.18 0.24 0.34 0.37 0.61 0.83 0.62 0.75 0.77 0.84 1.11 1.31 1.39 1.51
0.14 0.16 0.26 0.40 0.47 0.32 0.29 0.30 0.27 0.31 0.35 0.35 0.45 0.77 0.53 0.40 0.32 0.48 0.63 0.72 0.97 1.23
0.29 0.28 0.36 0.35 0.28 0.27 0.32 0.31 0.32 0.35 0.33 0.45 0.25 0.55 0.45 0.34 0.23 0.45 0.48 0.57 0.83 1.17
0.37 0.37 0.31 0.27 0.27 0.33 0.35 0.28 0.28 0.26 0.20 0.21 0.27 0.41 0.46 0.41 0.29 0.42 0.50 0.45 0.44 0.56

GFSNIL_prec_precacc_132.txt.gz
Total_Precipitation_Accumulation
0.16 0.15 0.14 0.16 0.23 0.28 0.48 1.03 1.03 0.74 0.43 0.60 0.96 0.94 0.94 0.99 1.13 1.23 1.37 1.44 1.25 1.07
0.22 0.12 0.17 0.37 0.28 0.43 0.40 0.69 0.94 1.09 0.95 0.72 0.84 1.11 1.22 1.26 1.52 1.61 1.54 1.42 1.32 1.00
0.20 0.19 0.21 0.34 0.22 0.31 0.39 0.65 1.01 1.31 1.60 1.53 1.11 1.08 1.57 1.70 1.59 1.55 1.46 1.50 1.41 1.16
0.33 0.31 0.33 0.35 0.40 0.43 0.62 0.80 1.07 1.43 1.90 2.43 2.12 1.71 1.53 1.53 1.44 1.26 1.19 1.31 1.34 1.22
0.44 0.43 0.46 0.61 0.62 0.74 0.91 0.98 1.20 1.48 1.84 2.18 2.50 2.31 1.99 1.71 1.56 1.52 1.28 1.18 1.41 1.34
0.48 0.45 0.74 0.81 1.09 1.26 1.32 1.44 1.47 1.48 1.54 1.71 1.82 2.12 1.91 1.51 1.21 1.19 1.14 0.96 0.94 1.03
0.43 0.52 0.67 0.76 0.89 1.32 1.45 1.23 0.99 0.87 0.71 0.63 0.75 1.02 1.25 1.33 1.40 1.25 1.19 1.14 1.06 0.93
0.63 1.00 1.09 1.13 0.97 0.78 0.65 0.60 0.49 0.42 0.34 0.30 0.44 0.86 0.92 1.07 1.10 1.32 1.26 1.20 1.26 1.28
0.72 0.64 0.70 0.64 0.49 0.33 0.32 0.40 0.43 0.31 0.26 0.27 0.28 0.73 0.92 1.08 1.06 1.22 1.49 1.34 1.10 1.11
0.37 0.36 0.31 0.23 0.25 0.30 0.31 0.27 0.30 0.42 0.33 0.22 0.33 0.76 0.70 1.06 0.87 0.98 1.37 1.53 1.57 1.59
0.14 0.14 0.17 0.27 0.34 0.35 0.33 0.25 0.24 0.32 0.60 0.55 0.62 0.84 0.62 0.76 0.78 0.85 1.12 1.33 1.41 1.54
0.14 0.16 0.26 0.40 0.47 0.39 0.34 0.41 0.35 0.34 0.37 0.36 0.46 0.78 0.54 0.42 0.34 0.50 0.64 0.73 0.99 1.27
0.29 0.28 0.36 0.35 0.28 0.28 0.38 0.39 0.52 0.60 0.41 0.46 0.25 0.55 0.46 0.36 0.24 0.47 0.50 0.58 0.85 1.21
0.37 0.37 0.31 0.27 0.27 0.33 0.37 0.45 0.43 0.42 0.45 0.32 0.28 0.41 0.47 0.41 0.29 0.42 0.51 0.45 0.45 0.56

GFSNIL_prec_precacc_135.txt.gz
Total_Precipitation_Accumulation
0.16 0.15 0.14 0.16 0.23 0.29 0.50 1.05 1.09 0.81 0.50 0.64 0.98 0.99 1.00 1.06 1.17 1.27 1.40 1.45 1.26 1.08
0.22 0.12 0.17 0.37 0.28 0.43 0.41 0.69 0.95 1.11 0.97 0.75 0.86 1.13 1.27 1.31 1.57 1.67 1.58 1.44 1.33 1.01
0.20 0.19 0.21 0.34 0.22 0.31 0.39 0.65 1.02 1.33 1.62 1.55 1.12 1.10 1.64 1.73 1.65 1.59 1.50 1.53 1.41 1.17
0.33 0.31 0.33 0.35 0.40 0.43 0.62 0.83 1.09 1.45 1.93 2.44 2.15 1.76 1.58 1.57 1.49 1.29 1.21 1.32 1.35 1.23
0.44 0.43 0.46 0.61 0.62 0.74 0.91 0.99 1.24 1.54 1.90 2.21 2.51 2.33 2.01 1.73 1.59 1.54 1.30 1.19 1.44 1.37
0.48 0.45 0.74 0.81 1.09 1.26 1.32 1.44 1.48 1.52 1.63 1.77 1.84 2.14 1.92 1.52 1.23 1.21 1.16 0.98 0.95 1.04
0.43 0.52 0.67 0.76 0.89 1.32 1.45 1.23 1.00 0.89 0.77 0.70 0.79 1.04 1.25 1.34 1.40 1.25 1.20 1.15 1.07 0.93
0.63 1.00 1.09 1.13 0.97 0.78 0.65 0.60 0.50 0.44 0.38 0.34 0.48 0.90 0.92 1.07 1.10 1.32 1.26 1.20 1.26 1.28
0.72 0.64 0.70 0.64 0.49 0.33 0.32 0.40 0.44 0.32 0.29 0.31 0.31 0.76 0.95 1.08 1.06 1.22 1.49 1.35 1.10 1.11
0.37 0.36 0.31 0.23 0.25 0.30 0.31 0.27 0.30 0.43 0.34 0.26 0.43 0.89 0.76 1.09 0.87 0.98 1.37 1.53 1.57 1.59
0.14 0.14 0.17 0.27 0.34 0.35 0.33 0.25 0.24 0.32 0.62 0.95 0.93 0.97 0.84 0.89 0.79 0.85 1.12 1.33 1.41 1.54
0.14 0.16 0.26 0.40 0.47 0.39 0.34 0.41 0.35 0.34 0.39 0.51 0.86 1.13 0.67 0.50 0.34 0.51 0.64 0.73 0.99 1.28
0.29 0.28 0.36 0.35 0.28 0.28 0.38 0.39 0.52 0.60 0.43 0.55 0.34 0.75 0.64 0.42 0.24 0.47 0.50 0.58 0.86 1.23
0.37 0.37 0.31 0.27 0.27 0.33 0.37 0.45 0.43 0.42 0.51 0.50 0.40 0.50 0.60 0.59 0.31 0.42 0.51 0.46 0.46 0.57

GFSNIL_prec_precacc_138.txt.gz
Total_Precipitation_Accumulation
0.16 0.15 0.14 0.16 0.23 0.29 0.50 1.08 1.12 0.86 0.55 0.70 1.04 1.04 1.04 1.08 1.19 1.29 1.46 1.50 1.30 1.09
0.22 0.12 0.17 0.37 0.28 0.43 0.41 0.70 0.96 1.15 1.01 0.79 0.93 1.19 1.33 1.34 1.58 1.68 1.60 1.48 1.36 1.05
0.20 0.19 0.21 0.34 0.22 0.31 0.39 0.65 1.02 1.33 1.64 1.57 1.15 1.12 1.67 1.75 1.67 1.61 1.52 1.56 1.43 1.20
0.33 0.31 0.33 0.35 0.40 0.43 0.62 0.83 1.09 1.45 1.95 2.48 2.19 1.79 1.59 1.58 1.49 1.31 1.24 1.37 1.37 1.26
0.44 0.43 0.46 0.61 0.62 0.74 0.91 0.99 1.24 1.54 1.91 2.22 2.54 2.38 2.05 1.75 1.59 1.55 1.32 1.23 1.48 1.39
0.48 0.45 0.74 0.81 1.09 1.26 1.32 1.44 1.48 1.53 1.63 1.79 1.87 2.18 1.96 1.55 1.25 1.24 1.18 1.01 0.99 1.07
0.43 0.52 0.67 0.76 0.89 1.32 1.45 1.23 1.00 0.89 0.78 0.71 0.80 1.09 1.31 1.38 1.42 1.26 1.21 1.17 1.11 0.96
0.63 1.00 1.09 1.13 0.97 0.78 0.65 0.60 0.50 0.44 0.38 0.34 0.49 0.93 0.97 1.11 1.13 1.33 1.26 1.20 1.27 1.29
0.72 0.64 0.70 0.64 0.49 0.33 0.32 0.40 0.44 0.32 0.29 0.31 0.32 0.79 0.98 1.14 1.13 1.27 1.50 1.35 1.11 1.11
0.37 0.36 0.31 0.23 0.25 0.30 0.31 0.27 0.30 0.43 0.34 0.26 0.43 0.91 0.78 1.16 0.96 1.06 1.42 1.53 1.57 1.59
0.14 0.14 0.17 0.27 0.34 0.35 0.33 0.25 0.24 0.32 0.62 0.95 0.93 0.99 0.87 1.09 0.96 0.95 1.19 1.35 1.41 1.54
0.14 0.16 0.26 0.40 0.47 0.39 0.34 0.41 0.35 0.34 0.39 0.51 0.87 1.16 0.69 0.61 0.66 0.76 0.79 0.93 1.06 1.29
0.29 0.28 0.36 0.35 0.28 0.28 0.38 0.39 0.52 0.60 0.43 0.55 0.34 0.76 0.67 0.46 0.32 0.64 0.66 0.67 0.91 1.25
0.37 0.37 0.31 0.27 0.27 0.33 0.37 0.45 0.43 0.42 0.51 0.50 0.40 0.50 0.62 0.64 0.40 0.51 0.60 0.49 0.47 0.57

GFSNIL_prec_precacc_141.txt.gz
Total_Precipitation_Accumulation
0.18 0.15 0.16 0.29 0.29 0.29 0.51 1.09 1.13 0.87 0.56 0.72 1.06 1.06 1.06 1.09 1.20 1.30 1.48 1.53 1.38 1.17
0.22 0.12 0.17 0.37 0.28 0.43 0.41 0.70 0.96 1.16 1.01 0.80 0.94 1.21 1.34 1.36 1.60 1.70 1.61 1.50 1.40 1.09
0.20 0.19 0.21 0.34 0.22 0.31 0.39 0.65 1.02 1.33 1.65 1.58 1.17 1.15 1.70 1.78 1.69 1.63 1.54 1.57 1.46 1.24
0.33 0.31 0.33 0.35 0.40 0.43 0.62 0.83 1.09 1.45 1.95 2.49 2.20 1.80 1.61 1.59 1.51 1.32 1.26 1.39 1.39 1.29
0.44 0.43 0.46 0.61 0.62 0.74 0.91 0.99 1.24 1.54 1.91 2.22 2.55 2.40 2.08 1.79 1.61 1.56 1.32 1.23 1.49 1.40
0.48 0.45 0.74 0.81 1.09 1.26 1.32 1.44 1.48 1.53 1.63 1.79 1.87 2.19 1.99 1.59 1.29 1.26 1.19 1.01 1.00 1.09
0.43 0.52 0.67 0.76 0.89 1.32 1.45 1.23 1.00 0.89 0.78 0.71 0.80 1.09 1.33 1.42 1.48 1.29 1.23 1.20 1.13 1.01
0.63 1.00 1.09 1.13 0.97 0.78 0.65 0.60 0.50 0.44 0.38 0.34 0.49 0.93 0.98 1.12 1.18 1.43 1.39 1.26 1.29 1.31
0.72 0.64 0.70 0.64 0.49 0.33 0.32 0.40 0.44 0.32 0.29 0.31 0.32 0.79 1.00 1.16 1.14 1.31 1.59 1.44 1.14 1.12
0.37 0.36 0.31 0.23 0.25 0.30 0.31 0.27 0.30 0.43 0.34 0.26 0.43 0.91 0.78 1.18 0.98 1.08 1.49 1.65 1.63 1.60
0.14 0.14 0.17 0.27 0.34 0.35 0.33 0.25 0.24 0.32 0.62 0.95 0.93 0.99 0.87 1.09 0.96 0.98 1.23 1.44 1.64 1.84
0.14 0.16 0.26 0.40 0.47 0.39 0.34 0.41 0.35 0.34 0.39 0.51 0.87 1.16 0.69 0.61 0.67 0.78 0.81 0.97 1.20 1.46
0.29 0.28 0.36 0.35 0.28 0.28 0.38 0.39 0.52 0.60 0.43 0.55 0.34 0.76 0.67 0.46 0.32 0.64 0.67 0.68 0.95 1.34
0.37 0.37 0.31 0.27 0.27 0.33 0.37 0.45 0.43 0.42 0.51 0.50 0.40 0.50 0.62 0.64 0.40 0.51 0.61 0.51 0.48 0.60